Wetterdaten: Mittwoch, 22.05.2019
Datum Zeit Temp. Aussen Temp. o. S. +5cm Feuchte Auss Luftdruck Regen Sonnenschein Regendauer Solar Windben Empfang
22.05.2019 00:00 11,1 C 10,6 C 10,0 C 98 % 1017,5 hPa 0,0 l/m 0 min 0 min 0 W/m 6,4 km/h (2 Bft) 95,74 %
22.05.2019 00:02 11,1 C 10,6 C 10,0 C 98 % 1017,5 hPa 0,0 l/m 0 min 0 min 0 W/m 6,4 km/h (2 Bft) 95,45 %
22.05.2019 00:04 11,1 C 10,6 C 10,0 C 98 % 1017,5 hPa 0,0 l/m 0 min 0 min 0 W/m 9,7 km/h (2 Bft) 97,87 %
22.05.2019 00:07 11,1 C 10,6 C 10,0 C 98 % 1017,5 hPa 0,0 l/m 0 min 0 min 0 W/m 9,7 km/h (2 Bft) 98,57 %
22.05.2019 00:08 11,1 C 10,6 C 10,0 C 98 % 1017,5 hPa 0,0 l/m 0 min 0 min 0 W/m 6,4 km/h (2 Bft) 95,83 %
22.05.2019 00:10 11,1 C 10,6 C 10,0 C 98 % 1017,5 hPa 0,0 l/m 0 min 0 min 0 W/m 12,9 km/h (3 Bft) 93,48 %
22.05.2019 00:12 11,1 C 10,6 C 10,0 C 98 % 1017,6 hPa 0,0 l/m 0 min 0 min 0 W/m 6,4 km/h (2 Bft) 93,62 %
22.05.2019 00:14 11,1 C 10,6 C 10,0 C 98 % 1017,5 hPa 0,0 l/m 0 min 0 min 0 W/m 9,7 km/h (2 Bft) 91,49 %
22.05.2019 00:16 11,1 C 10,6 C 10,0 C 98 % 1017,6 hPa 0,0 l/m 0 min 0 min 0 W/m 6,4 km/h (2 Bft) 93,62 %
22.05.2019 00:18 11,1 C 10,6 C 10,0 C 98 % 1017,6 hPa 0,0 l/m 0 min 0 min 0 W/m 16,1 km/h (3 Bft) 93,62 %
22.05.2019 00:20 11,1 C 10,6 C 10,0 C 98 % 1017,6 hPa 0,0 l/m 0 min 0 min 0 W/m 9,7 km/h (2 Bft) 93,62 %
22.05.2019 00:22 11,1 C 10,6 C 10,0 C 98 % 1017,5 hPa 0,0 l/m 0 min 0 min 0 W/m 9,7 km/h (2 Bft) 93,62 %
22.05.2019 00:24 11,1 C 10,6 C 10,0 C 98 % 1017,6 hPa 0,0 l/m 0 min 0 min 0 W/m 12,9 km/h (3 Bft) 93,48 %
22.05.2019 00:26 11,1 C 10,6 C 10,0 C 98 % 1017,6 hPa 0,0 l/m 0 min 0 min 0 W/m 9,7 km/h (2 Bft) 93,62 %
22.05.2019 00:28 11,1 C 10,6 C 10,0 C 99 % 1017,6 hPa 0,0 l/m 0 min 0 min 0 W/m 6,4 km/h (2 Bft) 93,62 %
22.05.2019 00:30 11,1 C 10,6 C 10,0 C 99 % 1017,6 hPa 0,0 l/m 0 min 0 min 0 W/m 6,4 km/h (2 Bft) 93,62 %
22.05.2019 00:32 11,1 C 10,6 C 10,0 C 99 % 1017,6 hPa 0,0 l/m 0 min 0 min 0 W/m 6,4 km/h (2 Bft) 95,74 %
22.05.2019 00:34 11,1 C 10,6 C 10,0 C 99 % 1017,5 hPa 0,0 l/m 0 min 0 min 0 W/m 16,1 km/h (3 Bft) 95,65 %
22.05.2019 00:36 11,1 C 10,6 C 10,0 C 99 % 1017,5 hPa 0,0 l/m 0 min 0 min 0 W/m 16,1 km/h (3 Bft) 95,74 %
22.05.2019 00:38 11,1 C 10,6 C 10,0 C 99 % 1017,5 hPa 0,0 l/m 0 min 0 min 0 W/m 9,7 km/h (2 Bft) 93,62 %
22.05.2019 00:40 11,0 C 10,6 C 10,0 C 99 % 1017,5 hPa 0,0 l/m 0 min 0 min 0 W/m 6,4 km/h (2 Bft) 95,74 %
22.05.2019 00:42 11,0 C 10,6 C 10,0 C 99 % 1017,6 hPa 0,0 l/m 0 min 0 min 0 W/m 6,4 km/h (2 Bft) 91,49 %
22.05.2019 00:44 11,1 C 10,6 C 10,0 C 99 % 1017,5 hPa 0,0 l/m 0 min 0 min 0 W/m 6,4 km/h (2 Bft) 91,49 %
22.05.2019 00:46 11,0 C 10,6 C 10,0 C 99 % 1017,6 hPa 0,0 l/m 0 min 0 min 0 W/m 6,4 km/h (2 Bft) 93,48 %
22.05.2019 00:48 11,0 C 10,6 C 10,0 C 99 % 1017,6 hPa 0,0 l/m 0 min 0 min 0 W/m 6,4 km/h (2 Bft) 95,74 %
22.05.2019 00:50 11,0 C 10,6 C 10,0 C 98 % 1017,5 hPa 0,0 l/m 0 min 0 min 0 W/m 3,2 km/h (1 Bft) 95,74 %
22.05.2019 00:52 11,0 C 10,6 C 10,0 C 99 % 1017,5 hPa 0,0 l/m 0 min 0 min 0 W/m 6,4 km/h (2 Bft) 97,87 %
22.05.2019 00:54 11,0 C 10,6 C 10,0 C 99 % 1017,5 hPa 0,0 l/m 0 min 0 min 0 W/m 6,4 km/h (2 Bft) 95,74 %
22.05.2019 00:56 11,0 C 10,6 C 10,0 C 98 % 1017,5 hPa 0,0 l/m 0 min 0 min 0 W/m 6,4 km/h (2 Bft) 97,83 %
22.05.2019 00:58 11,0 C 10,6 C 10,0 C 98 % 1017,5 hPa 0,0 l/m 0 min 0 min 0 W/m 6,4 km/h (2 Bft) 97,87 %
22.05.2019 01:00 11,0 C 10,6 C 10,0 C 98 % 1017,5 hPa 0,0 l/m 0 min 0 min 0 W/m 6,4 km/h (2 Bft) 97,87 %
22.05.2019 01:02 11,0 C 10,6 C 10,0 C 98 % 1017,6 hPa 0,0 l/m 0 min 0 min 0 W/m 6,4 km/h (2 Bft) 97,87 %
22.05.2019 01:04 11,0 C 10,6 C 10,0 C 98 % 1017,6 hPa 0,0 l/m 0 min 0 min 0 W/m 12,9 km/h (3 Bft) 97,87 %
22.05.2019 01:06 11,0 C 10,6 C 10,0 C 98 % 1017,6 hPa 0,0 l/m 0 min 0 min 0 W/m 6,4 km/h (2 Bft) 100,00 %
22.05.2019 01:08 11,0 C 10,6 C 10,0 C 98 % 1017,6 hPa 0,0 l/m 0 min 0 min 0 W/m 6,4 km/h (2 Bft) 100,00 %
22.05.2019 01:10 11,0 C 10,6 C 10,0 C 98 % 1017,6 hPa 0,0 l/m 0 min 0 min 0 W/m 6,4 km/h (2 Bft) 100,00 %
22.05.2019 01:12 11,0 C 10,6 C 10,0 C 98 % 1017,6 hPa 0,0 l/m 0 min 0 min 0 W/m 9,7 km/h (2 Bft) 100,00 %
22.05.2019 01:14 10,9 C 10,0 C 10,0 C 98 % 1017,6 hPa 0,0 l/m 0 min 0 min 0 W/m 9,7 km/h (2 Bft) 100,00 %
22.05.2019 01:16 10,9 C 10,0 C 10,0 C 98 % 1017,6 hPa 0,0 l/m 0 min 0 min 0 W/m 6,4 km/h (2 Bft) 97,87 %
22.05.2019 01:18 10,9 C 10,6 C 10,0 C 98 % 1017,6 hPa 0,0 l/m 0 min 0 min 0 W/m 6,4 km/h (2 Bft) 100,00 %
22.05.2019 01:20 10,9 C 10,0 C 10,0 C 98 % 1017,6 hPa 0,0 l/m 0 min 0 min 0 W/m 22,5 km/h (4 Bft) 97,83 %
22.05.2019 01:22 10,9 C 10,0 C 10,0 C 98 % 1017,6 hPa 0,0 l/m 0 min 0 min 0 W/m 12,9 km/h (3 Bft) 100,00 %
22.05.2019 01:24 10,9 C 10,0 C 10,0 C 98 % 1017,6 hPa 0,0 l/m 0 min 0 min 0 W/m 0,0 km/h (0 Bft) 100,00 %
22.05.2019 01:26 10,9 C 10,0 C 10,0 C 98 % 1017,6 hPa 0,0 l/m 0 min 0 min 0 W/m 6,4 km/h (2 Bft) 97,87 %
22.05.2019 01:28 10,9 C 10,0 C 10,0 C 98 % 1017,6 hPa 0,0 l/m 0 min 0 min 0 W/m 12,9 km/h (3 Bft) 100,00 %
22.05.2019 01:30 10,9 C 10,0 C 10,0 C 98 % 1017,6 hPa 0,0 l/m 0 min 0 min 0 W/m 6,4 km/h (2 Bft) 100,00 %
22.05.2019 01:32 10,9 C 10,0 C 10,0 C 98 % 1017,6 hPa 0,0 l/m 0 min 0 min 0 W/m 3,2 km/h (1 Bft) 100,00 %
22.05.2019 01:34 10,9 C 10,0 C 10,0 C 98 % 1017,6 hPa 0,0 l/m 0 min 0 min 0 W/m 3,2 km/h (1 Bft) 100,00 %
22.05.2019 01:36 10,9 C 10,0 C 10,0 C 98 % 1017,6 hPa 0,0 l/m 0 min 0 min 0 W/m 6,4 km/h (2 Bft) 100,00 %
22.05.2019 01:38 10,9 C 10,0 C 10,0 C 98 % 1017,6 hPa 0,0 l/m 0 min 0 min 0 W/m 6,4 km/h (2 Bft) 100,00 %
22.05.2019 01:40 10,9 C 10,0 C 10,0 C 98 % 1017,6 hPa 0,0 l/m 0 min 0 min 0 W/m 3,2 km/h (1 Bft) 100,00 %
22.05.2019 01:42 10,9 C 10,0 C 10,0 C 98 % 1017,6 hPa 0,0 l/m 0 min 0 min 0 W/m 6,4 km/h (2 Bft) 100,00 %
22.05.2019 01:44 10,9 C 10,0 C 10,0 C 98 % 1017,5 hPa 0,0 l/m 0 min 0 min 0 W/m 6,4 km/h (2 Bft) 97,83 %
22.05.2019 01:46 10,9 C 10,0 C 10,0 C 98 % 1017,6 hPa 0,0 l/m 0 min 0 min 0 W/m 6,4 km/h (2 Bft) 100,00 %
22.05.2019 01:48 10,9 C 10,0 C 10,0 C 98 % 1017,6 hPa 0,0 l/m 0 min 0 min 0 W/m 6,4 km/h (2 Bft) 97,87 %
22.05.2019 01:50 10,9 C 10,0 C 10,0 C 98 % 1017,6 hPa 0,0 l/m 0 min 0 min 0 W/m 6,4 km/h (2 Bft) 100,00 %
22.05.2019 01:52 10,9 C 10,0 C 10,0 C 98 % 1017,6 hPa 0,0 l/m 0 min 0 min 0 W/m 9,7 km/h (2 Bft) 100,00 %
22.05.2019 01:54 10,9 C 10,0 C 10,0 C 98 % 1017,6 hPa 0,0 l/m 0 min 0 min 0 W/m 9,7 km/h (2 Bft) 100,00 %
22.05.2019 01:56 10,9 C 10,0 C 10,0 C 98 % 1017,6 hPa 0,0 l/m 0 min 0 min 0 W/m 3,2 km/h (1 Bft) 100,00 %
22.05.2019 01:58 10,9 C 10,0 C 10,0 C 99 % 1017,5 hPa 0,0 l/m 0 min 0 min 0 W/m 6,4 km/h (2 Bft) 100,00 %
22.05.2019 02:00 10,9 C 10,0 C 10,0 C 99 % 1017,5 hPa 0,0 l/m 0 min 0 min 0 W/m 12,9 km/h (3 Bft) 100,00 %
22.05.2019 02:02 10,9 C 10,0 C 10,0 C 99 % 1017,6 hPa 0,0 l/m 0 min 0 min 0 W/m 0,0 km/h (0 Bft) 97,87 %
22.05.2019 02:04 10,9 C 10,0 C 10,0 C 99 % 1017,6 hPa 0,0 l/m 0 min 0 min 0 W/m 6,4 km/h (2 Bft) 100,00 %
22.05.2019 02:06 10,9 C 10,0 C 9,4 C 99 % 1017,6 hPa 0,0 l/m 0 min 0 min 0 W/m 12,9 km/h (3 Bft) 100,00 %
22.05.2019 02:08 10,9 C 10,0 C 10,0 C 99 % 1017,6 hPa 0,0 l/m 0 min 0 min 0 W/m 6,4 km/h (2 Bft) 100,00 %
22.05.2019 02:10 10,9 C 10,0 C 10,0 C 99 % 1017,6 hPa 0,0 l/m 0 min 0 min 0 W/m 9,7 km/h (2 Bft) 100,00 %
22.05.2019 02:12 10,9 C 10,0 C 10,0 C 99 % 1017,7 hPa 0,0 l/m 0 min 0 min 0 W/m 9,7 km/h (2 Bft) 100,00 %
22.05.2019 02:14 10,9 C 10,0 C 10,0 C 99 % 1017,7 hPa 0,0 l/m 0 min 0 min 0 W/m 9,7 km/h (2 Bft) 100,00 %
22.05.2019 02:16 10,9 C 10,0 C 10,0 C 99 % 1017,7 hPa 0,0 l/m 0 min 0 min 0 W/m 6,4 km/h (2 Bft) 100,00 %
22.05.2019 02:18 10,9 C 10,0 C 10,0 C 99 % 1017,6 hPa 0,0 l/m 0 min 0 min 0 W/m 6,4 km/h (2 Bft) 100,00 %
22.05.2019 02:20 10,8 C 10,0 C 10,0 C 99 % 1017,7 hPa 0,0 l/m 0 min 0 min 0 W/m 32,2 km/h (5 Bft) 100,00 %
22.05.2019 02:22 10,8 C 10,0 C 10,0 C 99 % 1017,6 hPa 0,0 l/m 0 min 0 min 0 W/m 6,4 km/h (2 Bft) 100,00 %
22.05.2019 02:24 10,8 C 10,0 C 10,0 C 99 % 1017,7 hPa 0,0 l/m 0 min 0 min 0 W/m 12,9 km/h (3 Bft) 97,87 %
22.05.2019 02:26 10,8 C 10,0 C 10,0 C 99 % 1017,7 hPa 0,0 l/m 0 min 0 min 0 W/m 6,4 km/h (2 Bft) 100,00 %
22.05.2019 02:28 10,9 C 10,0 C 10,0 C 99 % 1017,6 hPa 0,0 l/m 0 min 0 min 0 W/m 6,4 km/h (2 Bft) 100,00 %
22.05.2019 02:30 10,9 C 10,0 C 10,0 C 99 % 1017,6 hPa 0,0 l/m 0 min 0 min 0 W/m 9,7 km/h (2 Bft) 100,00 %
22.05.2019 02:32 10,9 C 10,0 C 10,0 C 99 % 1017,7 hPa 0,0 l/m 0 min 0 min 0 W/m 12,9 km/h (3 Bft) 100,00 %
22.05.2019 02:34 10,8 C 10,0 C 10,0 C 99 % 1017,6 hPa 0,0 l/m 0 min 0 min 0 W/m 16,1 km/h (3 Bft) 100,00 %
22.05.2019 02:36 10,8 C 10,0 C 10,0 C 99 % 1017,6 hPa 0,0 l/m 0 min 0 min 0 W/m 9,7 km/h (2 Bft) 100,00 %
22.05.2019 02:38 10,8 C 10,0 C 9,4 C 99 % 1017,6 hPa 0,0 l/m 0 min 0 min 0 W/m 12,9 km/h (3 Bft) 95,74 %
22.05.2019 02:40 10,8 C 10,0 C 10,0 C 99 % 1017,6 hPa 0,0 l/m 0 min 0 min 0 W/m 9,7 km/h (2 Bft) 100,00 %
22.05.2019 02:42 10,8 C 10,0 C 10,0 C 99 % 1017,7 hPa 0,0 l/m 0 min 0 min 0 W/m 9,7 km/h (2 Bft) 97,83 %
22.05.2019 02:44 10,8 C 10,0 C 9,4 C 99 % 1017,7 hPa 0,0 l/m 0 min 0 min 0 W/m 9,7 km/h (2 Bft) 95,74 %
22.05.2019 02:46 10,8 C 10,0 C 9,4 C 99 % 1017,6 hPa 0,0 l/m 0 min 0 min 0 W/m 16,1 km/h (3 Bft) 95,74 %
22.05.2019 02:48 10,8 C 10,0 C 9,4 C 99 % 1017,6 hPa 0,0 l/m 0 min 0 min 0 W/m 6,4 km/h (2 Bft) 95,74 %
22.05.2019 02:50 10,8 C 10,0 C 9,4 C 99 % 1017,7 hPa 0,0 l/m 0 min 0 min 0 W/m 12,9 km/h (3 Bft) 95,74 %
22.05.2019 02:52 10,8 C 10,0 C 9,4 C 99 % 1017,6 hPa 0,0 l/m 0 min 0 min 0 W/m 16,1 km/h (3 Bft) 95,74 %
22.05.2019 02:54 10,8 C 10,0 C 9,4 C 99 % 1017,7 hPa 0,0 l/m 0 min 0 min 0 W/m 9,7 km/h (2 Bft) 95,65 %
22.05.2019 02:56 10,8 C 10,0 C 9,4 C 99 % 1017,6 hPa 0,0 l/m 0 min 0 min 0 W/m 9,7 km/h (2 Bft) 91,49 %
22.05.2019 02:58 10,8 C 10,0 C 9,4 C 99 % 1017,7 hPa 0,0 l/m 0 min 0 min 0 W/m 6,4 km/h (2 Bft) 95,74 %
22.05.2019 03:00 10,8 C 10,0 C 9,4 C 99 % 1017,8 hPa 0,0 l/m 0 min 0 min 0 W/m 9,7 km/h (2 Bft) 93,62 %
22.05.2019 03:02 10,7 C 10,0 C 9,4 C 99 % 1017,7 hPa 0,0 l/m 0 min 0 min 0 W/m 6,4 km/h (2 Bft) 93,62 %
22.05.2019 03:04 10,7 C 10,0 C 9,4 C 99 % 1017,7 hPa 0,0 l/m 0 min 0 min 0 W/m 9,7 km/h (2 Bft) 93,62 %
22.05.2019 03:06 10,7 C 10,0 C 9,4 C 99 % 1017,8 hPa 0,0 l/m 0 min 0 min 0 W/m 6,4 km/h (2 Bft) 93,48 %
22.05.2019 03:08 10,7 C 10,0 C 9,4 C 99 % 1017,7 hPa 0,0 l/m 0 min 0 min 0 W/m 6,4 km/h (2 Bft) 97,87 %
22.05.2019 03:10 10,7 C 10,0 C 9,4 C 99 % 1017,7 hPa 0,0 l/m 0 min 0 min 0 W/m 16,1 km/h (3 Bft) 93,62 %
22.05.2019 03:12 10,7 C 10,0 C 9,4 C 99 % 1017,7 hPa 0,0 l/m 0 min 0 min 0 W/m 9,7 km/h (2 Bft) 93,62 %
22.05.2019 03:14 10,7 C 10,0 C 9,4 C 99 % 1017,8 hPa 0,0 l/m 0 min 0 min 0 W/m 6,4 km/h (2 Bft) 91,49 %
22.05.2019 03:16 10,7 C 10,0 C 9,4 C 99 % 1017,8 hPa 0,0 l/m 0 min 0 min 0 W/m 6,4 km/h (2 Bft) 93,62 %
22.05.2019 03:18 10,7 C 10,0 C 9,4 C 99 % 1017,8 hPa 0,0 l/m 0 min 0 min 0 W/m 9,7 km/h (2 Bft) 95,65 %
22.05.2019 03:20 10,6 C 10,0 C 9,4 C 99 % 1017,8 hPa 0,0 l/m 0 min 0 min 0 W/m 6,4 km/h (2 Bft) 97,87 %
22.05.2019 03:22 10,6 C 10,0 C 9,4 C 99 % 1017,9 hPa 0,0 l/m 0 min 0 min 0 W/m 9,7 km/h (2 Bft) 95,74 %
22.05.2019 03:24 10,6 C 10,0 C 9,4 C 99 % 1017,9 hPa 0,0 l/m 0 min 0 min 0 W/m 6,4 km/h (2 Bft) 91,49 %
22.05.2019 03:26 10,6 C 10,0 C 9,4 C 99 % 1017,9 hPa 0,0 l/m 0 min 0 min 0 W/m 6,4 km/h (2 Bft) 95,74 %
22.05.2019 03:28 10,6 C 10,0 C 9,4 C 99 % 1018,0 hPa 0,0 l/m 0 min 0 min 0 W/m 6,4 km/h (2 Bft) 93,48 %
22.05.2019 03:30 10,6 C 10,0 C 9,4 C 99 % 1017,9 hPa 0,0 l/m 0 min 0 min 0 W/m 3,2 km/h (1 Bft) 95,74 %
22.05.2019 03:32 10,6 C 10,0 C 9,4 C 99 % 1017,9 hPa 0,0 l/m 0 min 0 min 0 W/m 9,7 km/h (2 Bft) 93,62 %
22.05.2019 03:34 10,5 C 10,0 C 9,4 C 99 % 1018,0 hPa 0,0 l/m 0 min 0 min 0 W/m 6,4 km/h (2 Bft) 95,74 %
22.05.2019 03:36 10,5 C 10,0 C 9,4 C 99 % 1018,0 hPa 0,0 l/m 0 min 0 min 0 W/m 9,7 km/h (2 Bft) 97,87 %
22.05.2019 03:38 10,5 C 10,0 C 9,4 C 99 % 1018,1 hPa 0,0 l/m 0 min 0 min 0 W/m 3,2 km/h (1 Bft) 95,74 %
22.05.2019 03:40 10,5 C 10,0 C 9,4 C 99 % 1018,0 hPa 0,0 l/m 0 min 0 min 0 W/m 6,4 km/h (2 Bft) 97,87 %
22.05.2019 03:42 10,4 C 10,0 C 9,4 C 99 % 1018,0 hPa 0,0 l/m 0 min 0 min 0 W/m 9,7 km/h (2 Bft) 97,83 %
22.05.2019 03:44 10,4 C 10,0 C 9,4 C 99 % 1018,1 hPa 0,0 l/m 0 min 0 min 0 W/m 0,0 km/h (0 Bft) 97,87 %
22.05.2019 03:46 10,4 C 10,0 C 9,4 C 99 % 1018,1 hPa 0,0 l/m 0 min 0 min 0 W/m 0,0 km/h (0 Bft) 97,87 %
22.05.2019 03:48 10,4 C 10,0 C 9,4 C 99 % 1018,2 hPa 0,0 l/m 0 min 0 min 0 W/m 0,0 km/h (0 Bft) 95,74 %
22.05.2019 03:50 10,4 C 10,0 C 9,4 C 99 % 1018,2 hPa 0,0 l/m 0 min 0 min 0 W/m 3,2 km/h (1 Bft) 97,87 %
22.05.2019 03:52 10,4 C 10,0 C 9,4 C 99 % 1018,1 hPa 0,0 l/m 0 min 0 min 0 W/m 9,7 km/h (2 Bft) 97,83 %
22.05.2019 03:54 10,4 C 10,0 C 9,4 C 99 % 1018,1 hPa 0,0 l/m 0 min 0 min 0 W/m 9,7 km/h (2 Bft) 97,87 %
22.05.2019 03:56 10,3 C 10,0 C 9,4 C 99 % 1018,1 hPa 0,0 l/m 0 min 0 min 0 W/m 3,2 km/h (1 Bft) 97,87 %
22.05.2019 03:58 10,3 C 10,0 C 9,4 C 99 % 1018,1 hPa 0,0 l/m 0 min 0 min 0 W/m 3,2 km/h (1 Bft) 95,74 %
22.05.2019 04:00 10,3 C 9,4 C 9,4 C 99 % 1018,2 hPa 0,0 l/m 0 min 0 min 0 W/m 6,4 km/h (2 Bft) 97,87 %
22.05.2019 04:02 10,3 C 9,4 C 9,4 C 99 % 1018,2 hPa 0,0 l/m 0 min 0 min 0 W/m 9,7 km/h (2 Bft) 100,00 %
22.05.2019 04:04 10,3 C 9,4 C 9,4 C 99 % 1018,2 hPa 0,0 l/m 0 min 0 min 0 W/m 9,7 km/h (2 Bft) 97,83 %
22.05.2019 04:06 10,2 C 9,4 C 9,4 C 99 % 1018,2 hPa 0,0 l/m 0 min 0 min 0 W/m 6,4 km/h (2 Bft) 97,87 %
22.05.2019 04:08 10,2 C 9,4 C 9,4 C 99 % 1018,2 hPa 0,0 l/m 0 min 0 min 0 W/m 3,2 km/h (1 Bft) 97,87 %
22.05.2019 04:10 10,2 C 9,4 C 9,4 C 99 % 1018,3 hPa 0,0 l/m 0 min 0 min 0 W/m 22,5 km/h (4 Bft) 97,87 %
22.05.2019 04:12 10,2 C 9,4 C 9,4 C 99 % 1018,3 hPa 0,0 l/m 0 min 0 min 0 W/m 6,4 km/h (2 Bft) 97,87 %
22.05.2019 04:14 10,2 C 9,4 C 9,4 C 99 % 1018,2 hPa 0,0 l/m 0 min 0 min 0 W/m 3,2 km/h (1 Bft) 97,87 %
22.05.2019 04:16 10,1 C 9,4 C 9,4 C 99 % 1018,3 hPa 0,0 l/m 0 min 0 min 0 W/m 9,7 km/h (2 Bft) 97,83 %
22.05.2019 04:18 10,1 C 9,4 C 9,4 C 99 % 1018,3 hPa 0,0 l/m 0 min 0 min 0 W/m 9,7 km/h (2 Bft) 97,87 %
22.05.2019 04:20 10,1 C 9,4 C 9,4 C 99 % 1018,3 hPa 0,0 l/m 0 min 0 min 0 W/m 6,4 km/h (2 Bft) 97,87 %
22.05.2019 04:22 10,1 C 9,4 C 9,4 C 99 % 1018,3 hPa 0,0 l/m 0 min 0 min 0 W/m 3,2 km/h (1 Bft) 100,00 %
22.05.2019 04:24 10,1 C 9,4 C 9,4 C 99 % 1018,3 hPa 0,0 l/m 0 min 0 min 0 W/m 3,2 km/h (1 Bft) 97,87 %
22.05.2019 04:26 10,1 C 9,4 C 9,4 C 99 % 1018,3 hPa 0,0 l/m 0 min 0 min 0 W/m 6,4 km/h (2 Bft) 97,87 %
22.05.2019 04:28 10,1 C 9,4 C 9,4 C 99 % 1018,3 hPa 0,0 l/m 0 min 0 min 0 W/m 3,2 km/h (1 Bft) 100,00 %
22.05.2019 04:30 10,1 C 9,4 C 9,4 C 99 % 1018,3 hPa 0,0 l/m 0 min 0 min 0 W/m 6,4 km/h (2 Bft) 97,87 %
22.05.2019 04:32 10,1 C 9,4 C 9,4 C 99 % 1018,2 hPa 0,0 l/m 0 min 0 min 0 W/m 3,2 km/h (1 Bft) 100,00 %
22.05.2019 04:34 10,1 C 9,4 C 9,4 C 99 % 1018,3 hPa 0,0 l/m 0 min 0 min 0 W/m 3,2 km/h (1 Bft) 100,00 %
22.05.2019 04:36 10,1 C 9,4 C 9,4 C 99 % 1018,2 hPa 0,0 l/m 0 min 0 min 0 W/m 0,0 km/h (0 Bft) 100,00 %
22.05.2019 04:38 10,0 C 9,4 C 9,4 C 99 % 1018,3 hPa 0,0 l/m 0 min 0 min 0 W/m 0,0 km/h (0 Bft) 97,87 %
22.05.2019 04:40 10,0 C 9,4 C 9,4 C 99 % 1018,3 hPa 0,0 l/m 0 min 0 min 0 W/m 9,7 km/h (2 Bft) 97,87 %
22.05.2019 04:42 10,0 C 9,4 C 9,4 C 99 % 1018,4 hPa 0,0 l/m 0 min 0 min 0 W/m 6,4 km/h (2 Bft) 100,00 %
22.05.2019 04:44 10,0 C 9,4 C 9,4 C 99 % 1018,4 hPa 0,0 l/m 0 min 0 min 0 W/m 6,4 km/h (2 Bft) 97,87 %
22.05.2019 04:46 10,0 C 9,4 C 9,4 C 99 % 1018,3 hPa 0,0 l/m 0 min 0 min 0 W/m 6,4 km/h (2 Bft) 100,00 %
22.05.2019 04:48 10,0 C 9,4 C 9,4 C 99 % 1018,4 hPa 0,0 l/m 0 min 0 min 0 W/m 12,9 km/h (3 Bft) 100,00 %
22.05.2019 04:50 10,0 C 9,4 C 9,4 C 99 % 1018,5 hPa 0,0 l/m 0 min 0 min 0 W/m 6,4 km/h (2 Bft) 100,00 %
22.05.2019 04:52 10,0 C 9,4 C 9,4 C 99 % 1018,5 hPa 0,0 l/m 0 min 0 min 0 W/m 6,4 km/h (2 Bft) 100,00 %
22.05.2019 04:54 9,9 C 9,4 C 9,4 C 99 % 1018,5 hPa 0,0 l/m 0 min 0 min 0 W/m 9,7 km/h (2 Bft) 97,14 %
22.05.2019 04:56 9,9 C 9,4 C 9,4 C 99 % 1018,5 hPa 0,0 l/m 0 min 0 min 0 W/m 6,4 km/h (2 Bft) 100,00 %
22.05.2019 04:58 9,9 C 9,4 C 9,4 C 99 % 1018,6 hPa 0,0 l/m 0 min 0 min 0 W/m 6,4 km/h (2 Bft) 100,00 %
22.05.2019 05:00 9,9 C 9,4 C 9,4 C 99 % 1018,5 hPa 0,0 l/m 0 min 0 min 0 W/m 3,2 km/h (1 Bft) 100,00 %
22.05.2019 05:02 9,9 C 9,4 C 9,4 C 99 % 1018,6 hPa 0,0 l/m 0 min 0 min 0 W/m 6,4 km/h (2 Bft) 100,00 %
22.05.2019 05:04 9,9 C 9,4 C 9,4 C 99 % 1018,5 hPa 0,0 l/m 0 min 0 min 0 W/m 3,2 km/h (1 Bft) 100,00 %
22.05.2019 05:05 9,9 C 9,4 C 8,9 C 98 % 1018,6 hPa 0,0 l/m 0 min 0 min 0 W/m 6,4 km/h (2 Bft) 100,00 %
22.05.2019 05:10 9,9 C 9,4 C 8,9 C 98 % 1018,6 hPa 0,0 l/m 0 min 0 min 0 W/m 6,4 km/h (2 Bft) 100,00 %
22.05.2019 05:12 9,9 C 9,4 C 8,9 C 98 % 1018,6 hPa 0,0 l/m 0 min 0 min 0 W/m 3,2 km/h (1 Bft) 100,00 %
22.05.2019 05:14 9,9 C 9,4 C 8,9 C 98 % 1018,6 hPa 0,0 l/m 0 min 0 min 0 W/m 9,7 km/h (2 Bft) 97,37 %
22.05.2019 05:19 9,8 C 9,4 C 8,9 C 98 % 1018,7 hPa 0,0 l/m 0 min 0 min 0 W/m 6,4 km/h (2 Bft) 91,43 %
22.05.2019 05:20 9,8 C 9,4 C 8,9 C 98 % 1018,7 hPa 0,0 l/m 0 min 0 min 0 W/m 0,0 km/h (0 Bft) 91,67 %
22.05.2019 05:22 9,8 C 9,4 C 8,9 C 98 % 1018,7 hPa 0,0 l/m 0 min 0 min 0 W/m 9,7 km/h (2 Bft) 89,80 %
22.05.2019 05:24 9,8 C 9,4 C 8,9 C 98 % 1018,7 hPa 0,0 l/m 0 min 0 min 0 W/m 16,1 km/h (3 Bft) 97,92 %
22.05.2019 05:26 9,8 C 9,4 C 8,9 C 98 % 1018,6 hPa 0,0 l/m 0 min 0 min 0 W/m 6,4 km/h (2 Bft) 97,87 %
22.05.2019 05:28 9,8 C 9,4 C 8,9 C 98 % 1018,7 hPa 0,0 l/m 0 min 0 min 0 W/m 3,2 km/h (1 Bft) 97,87 %
22.05.2019 05:30 9,8 C 9,4 C 8,9 C 98 % 1018,7 hPa 0,0 l/m 0 min 0 min 0 W/m 6,4 km/h (2 Bft) 97,87 %
22.05.2019 05:32 9,8 C 9,4 C 8,9 C 98 % 1018,7 hPa 0,0 l/m 0 min 0 min 0 W/m 6,4 km/h (2 Bft) 97,73 %
22.05.2019 05:34 9,7 C 9,4 C 8,9 C 98 % 1018,8 hPa 0,0 l/m 0 min 0 min 0 W/m 29,0 km/h (5 Bft) 95,83 %
22.05.2019 05:36 9,7 C 9,4 C 8,9 C 98 % 1018,7 hPa 0,0 l/m 0 min 0 min 0 W/m 3,2 km/h (1 Bft) 96,67 %
22.05.2019 05:38 9,7 C 9,4 C 8,9 C 98 % 1018,8 hPa 0,0 l/m 0 min 0 min 0 W/m 6,4 km/h (2 Bft) 97,14 %
22.05.2019 05:40 9,7 C 9,4 C 8,9 C 98 % 1018,7 hPa 0,0 l/m 0 min 0 min 0 W/m 3,2 km/h (1 Bft) 97,87 %
22.05.2019 05:42 9,7 C 9,4 C 8,9 C 98 % 1018,8 hPa 0,0 l/m 0 min 0 min 0 W/m 9,7 km/h (2 Bft) 95,24 %
22.05.2019 05:44 9,7 C 9,4 C 8,9 C 98 % 1018,8 hPa 0,0 l/m 0 min 0 min 0 W/m 3,2 km/h (1 Bft) 97,96 %
22.05.2019 05:46 9,7 C 9,4 C 8,9 C 98 % 1018,8 hPa 0,0 l/m 0 min 0 min 0 W/m 3,2 km/h (1 Bft) 97,92 %
22.05.2019 05:48 9,7 C 9,4 C 8,9 C 98 % 1018,8 hPa 0,0 l/m 0 min 0 min 0 W/m 9,7 km/h (2 Bft) 97,96 %
22.05.2019 05:50 9,7 C 9,4 C 8,9 C 98 % 1018,9 hPa 0,0 l/m 0 min 0 min 0 W/m 6,4 km/h (2 Bft) 100,00 %
22.05.2019 05:52 9,6 C 9,4 C 8,9 C 98 % 1018,9 hPa 0,0 l/m 0 min 0 min 0 W/m 3,2 km/h (1 Bft) 97,87 %
22.05.2019 05:54 9,6 C 9,4 C 8,9 C 98 % 1018,9 hPa 0,0 l/m 0 min 0 min 0 W/m 9,7 km/h (2 Bft) 100,00 %
22.05.2019 05:56 9,6 C 9,4 C 8,9 C 98 % 1018,9 hPa 0,0 l/m 0 min 0 min 0 W/m 12,9 km/h (3 Bft) 97,96 %
22.05.2019 05:58 9,6 C 9,4 C 8,9 C 98 % 1018,9 hPa 0,0 l/m 0 min 0 min 2 W/m 3,2 km/h (1 Bft) 97,96 %
22.05.2019 06:00 9,6 C 9,4 C 8,9 C 98 % 1018,9 hPa 0,0 l/m 0 min 0 min 5 W/m 3,2 km/h (1 Bft) 97,87 %
22.05.2019 06:02 9,6 C 9,4 C 8,9 C 98 % 1019,0 hPa 0,0 l/m 0 min 0 min 5 W/m 3,2 km/h (1 Bft) 97,87 %
22.05.2019 06:04 9,6 C 9,4 C 8,9 C 98 % 1019,0 hPa 0,0 l/m 0 min 0 min 5 W/m 0,0 km/h (0 Bft) 97,87 %
22.05.2019 06:08 9,6 C 9,4 C 8,9 C 98 % 1019,0 hPa 0,0 l/m 0 min 0 min 5 W/m 6,4 km/h (2 Bft) 96,67 %
22.05.2019 06:10 9,6 C 9,4 C 8,9 C 98 % 1019,0 hPa 0,0 l/m 0 min 0 min 6 W/m 9,7 km/h (2 Bft) 95,83 %
22.05.2019 06:12 9,6 C 9,4 C 8,9 C 98 % 1019,0 hPa 0,0 l/m 0 min 0 min 6 W/m 3,2 km/h (1 Bft) 91,84 %
22.05.2019 06:14 9,6 C 9,4 C 8,9 C 98 % 1019,0 hPa 0,0 l/m 0 min 0 min 7 W/m 3,2 km/h (1 Bft) 97,87 %
22.05.2019 06:16 9,6 C 9,4 C 8,9 C 98 % 1019,1 hPa 0,0 l/m 0 min 0 min 7 W/m 6,4 km/h (2 Bft) 97,87 %
22.05.2019 06:18 9,6 C 9,4 C 8,9 C 97 % 1019,1 hPa 0,0 l/m 0 min 0 min 7 W/m 3,2 km/h (1 Bft) 95,74 %
22.05.2019 06:20 9,6 C 9,4 C 8,9 C 97 % 1019,1 hPa 0,0 l/m 0 min 0 min 8 W/m 6,4 km/h (2 Bft) 93,02 %
22.05.2019 06:22 9,6 C 9,4 C 8,9 C 97 % 1019,1 hPa 0,0 l/m 0 min 0 min 9 W/m 6,4 km/h (2 Bft) 95,83 %
22.05.2019 06:24 9,6 C 9,4 C 8,9 C 97 % 1019,0 hPa 0,0 l/m 0 min 0 min 11 W/m 9,7 km/h (2 Bft) 97,96 %
22.05.2019 06:26 9,6 C 9,4 C 8,9 C 97 % 1019,1 hPa 0,0 l/m 0 min 0 min 11 W/m 9,7 km/h (2 Bft) 95,74 %
22.05.2019 06:28 9,6 C 9,4 C 8,9 C 97 % 1019,1 hPa 0,0 l/m 0 min 0 min 12 W/m 9,7 km/h (2 Bft) 95,74 %
22.05.2019 06:30 9,6 C 9,4 C 8,9 C 97 % 1019,1 hPa 0,0 l/m 0 min 0 min 13 W/m 6,4 km/h (2 Bft) 95,74 %
22.05.2019 06:32 9,6 C 9,4 C 8,9 C 97 % 1019,1 hPa 0,0 l/m 0 min 0 min 14 W/m 6,4 km/h (2 Bft) 95,45 %
22.05.2019 06:34 9,6 C 9,4 C 8,9 C 97 % 1019,1 hPa 0,0 l/m 0 min 0 min 14 W/m 3,2 km/h (1 Bft) 93,75 %
22.05.2019 06:36 9,6 C 9,4 C 8,9 C 97 % 1019,1 hPa 0,0 l/m 0 min 0 min 14 W/m 6,4 km/h (2 Bft) 93,88 %
22.05.2019 06:38 9,6 C 9,4 C 8,9 C 97 % 1019,1 hPa 0,0 l/m 0 min 0 min 15 W/m 0,0 km/h (0 Bft) 93,75 %
22.05.2019 06:40 9,6 C 9,4 C 8,9 C 97 % 1019,2 hPa 0,0 l/m 0 min 0 min 16 W/m 0,0 km/h (0 Bft) 95,74 %
22.05.2019 06:42 9,6 C 9,4 C 8,9 C 97 % 1019,2 hPa 0,0 l/m 0 min 0 min 17 W/m 9,7 km/h (2 Bft) 93,62 %
22.05.2019 06:44 9,6 C 9,4 C 8,9 C 97 % 1019,2 hPa 0,0 l/m 0 min 0 min 18 W/m 6,4 km/h (2 Bft) 92,86 %
22.05.2019 06:46 9,6 C 9,4 C 8,9 C 97 % 1019,1 hPa 0,0 l/m 0 min 0 min 20 W/m 6,4 km/h (2 Bft) 95,83 %
22.05.2019 06:48 9,6 C 9,4 C 8,9 C 97 % 1019,2 hPa 0,0 l/m 0 min 0 min 20 W/m 6,4 km/h (2 Bft) 95,92 %
22.05.2019 06:50 9,6 C 9,4 C 8,9 C 97 % 1019,2 hPa 0,0 l/m 0 min 0 min 21 W/m 19,3 km/h (3 Bft) 97,92 %
22.05.2019 06:52 9,6 C 9,4 C 8,9 C 96 % 1019,2 hPa 0,0 l/m 0 min 0 min 23 W/m 6,4 km/h (2 Bft) 95,74 %
22.05.2019 06:54 9,6 C 9,4 C 8,9 C 96 % 1019,2 hPa 0,0 l/m 0 min 0 min 26 W/m 6,4 km/h (2 Bft) 95,74 %
22.05.2019 06:56 9,6 C 9,4 C 8,9 C 96 % 1019,2 hPa 0,0 l/m 0 min 0 min 26 W/m 9,7 km/h (2 Bft) 97,62 %
22.05.2019 06:58 9,6 C 9,4 C 8,9 C 96 % 1019,2 hPa 0,0 l/m 0 min 0 min 26 W/m 6,4 km/h (2 Bft) 97,96 %
22.05.2019 07:00 9,6 C 9,4 C 8,9 C 96 % 1019,2 hPa 0,0 l/m 0 min 0 min 26 W/m 16,1 km/h (3 Bft) 97,87 %
22.05.2019 07:02 9,6 C 9,4 C 8,9 C 96 % 1019,2 hPa 0,0 l/m 0 min 0 min 26 W/m 6,4 km/h (2 Bft) 97,96 %
22.05.2019 07:04 9,6 C 9,4 C 8,9 C 96 % 1019,2 hPa 0,0 l/m 0 min 0 min 26 W/m 6,4 km/h (2 Bft) 97,87 %
22.05.2019 07:06 9,6 C 9,4 C 8,9 C 96 % 1019,2 hPa 0,0 l/m 0 min 0 min 26 W/m 9,7 km/h (2 Bft) 97,87 %
22.05.2019 07:08 9,6 C 9,4 C 8,9 C 96 % 1019,2 hPa 0,0 l/m 0 min 0 min 26 W/m 9,7 km/h (2 Bft) 95,74 %
22.05.2019 07:10 9,6 C 9,4 C 8,9 C 96 % 1019,2 hPa 0,0 l/m 0 min 0 min 26 W/m 12,9 km/h (3 Bft) 97,62 %
22.05.2019 07:12 9,6 C 9,4 C 8,9 C 96 % 1019,3 hPa 0,0 l/m 0 min 0 min 26 W/m 9,7 km/h (2 Bft) 100,00 %
22.05.2019 07:14 9,6 C 9,4 C 8,9 C 96 % 1019,3 hPa 0,0 l/m 0 min 0 min 25 W/m 6,4 km/h (2 Bft) 97,96 %
22.05.2019 07:16 9,6 C 9,4 C 8,9 C 95 % 1019,3 hPa 0,0 l/m 0 min 0 min 26 W/m 3,2 km/h (1 Bft) 97,87 %
22.05.2019 07:18 9,6 C 9,4 C 8,9 C 95 % 1019,3 hPa 0,0 l/m 0 min 0 min 28 W/m 0,0 km/h (0 Bft) 97,87 %
22.05.2019 07:20 9,6 C 9,4 C 8,9 C 95 % 1019,3 hPa 0,0 l/m 0 min 0 min 29 W/m 0,0 km/h (0 Bft) 97,87 %
22.05.2019 07:22 9,6 C 9,4 C 8,9 C 95 % 1019,3 hPa 0,0 l/m 0 min 0 min 32 W/m 0,0 km/h (0 Bft) 97,62 %
22.05.2019 07:24 9,6 C 9,4 C 8,9 C 95 % 1019,3 hPa 0,0 l/m 0 min 0 min 33 W/m 0,0 km/h (0 Bft) 100,00 %
22.05.2019 07:26 9,6 C 9,4 C 8,9 C 95 % 1019,3 hPa 0,0 l/m 0 min 0 min 33 W/m 6,4 km/h (2 Bft) 100,00 %
22.05.2019 07:28 9,7 C 9,4 C 8,9 C 95 % 1019,3 hPa 0,0 l/m 0 min 0 min 33 W/m 6,4 km/h (2 Bft) 100,00 %
22.05.2019 07:30 9,7 C 9,4 C 8,9 C 95 % 1019,3 hPa 0,0 l/m 0 min 0 min 35 W/m 6,4 km/h (2 Bft) 100,00 %
22.05.2019 07:32 9,7 C 9,4 C 8,9 C 95 % 1019,3 hPa 0,0 l/m 0 min 0 min 37 W/m 6,4 km/h (2 Bft) 100,00 %
22.05.2019 07:34 9,7 C 9,4 C 8,9 C 95 % 1019,3 hPa 0,0 l/m 0 min 0 min 39 W/m 3,2 km/h (1 Bft) 100,00 %
22.05.2019 07:36 9,7 C 9,4 C 8,9 C 95 % 1019,3 hPa 0,0 l/m 0 min 0 min 39 W/m 6,4 km/h (2 Bft) 95,92 %
22.05.2019 07:38 9,7 C 9,4 C 8,9 C 95 % 1019,4 hPa 0,0 l/m 0 min 0 min 40 W/m 12,9 km/h (3 Bft) 95,92 %
22.05.2019 07:40 9,7 C 10,0 C 8,9 C 95 % 1019,3 hPa 0,0 l/m 0 min 0 min 40 W/m 6,4 km/h (2 Bft) 97,92 %
22.05.2019 07:42 9,7 C 10,0 C 8,9 C 95 % 1019,3 hPa 0,0 l/m 0 min 0 min 42 W/m 9,7 km/h (2 Bft) 97,87 %
22.05.2019 07:44 9,7 C 10,0 C 8,9 C 95 % 1019,4 hPa 0,0 l/m 0 min 0 min 45 W/m 6,4 km/h (2 Bft) 97,87 %
22.05.2019 07:46 9,7 C 10,0 C 8,9 C 94 % 1019,4 hPa 0,0 l/m 0 min 0 min 46 W/m 6,4 km/h (2 Bft) 97,56 %
22.05.2019 07:48 9,7 C 10,0 C 8,9 C 94 % 1019,4 hPa 0,0 l/m 0 min 0 min 46 W/m 6,4 km/h (2 Bft) 97,96 %
22.05.2019 07:50 9,7 C 10,0 C 8,9 C 94 % 1019,4 hPa 0,0 l/m 0 min 0 min 46 W/m 3,2 km/h (1 Bft) 97,96 %
22.05.2019 07:52 9,7 C 10,0 C 8,9 C 94 % 1019,4 hPa 0,0 l/m 0 min 0 min 47 W/m 6,4 km/h (2 Bft) 97,92 %
22.05.2019 07:54 9,8 C 10,0 C 8,9 C 94 % 1019,5 hPa 0,0 l/m 0 min 0 min 46 W/m 3,2 km/h (1 Bft) 97,87 %
22.05.2019 07:56 9,8 C 10,0 C 8,9 C 94 % 1019,4 hPa 0,0 l/m 0 min 0 min 48 W/m 12,9 km/h (3 Bft) 95,65 %
22.05.2019 07:58 9,8 C 10,0 C 9,4 C 94 % 1019,5 hPa 0,0 l/m 0 min 0 min 51 W/m 6,4 km/h (2 Bft) 97,67 %
22.05.2019 08:00 9,8 C 10,0 C 8,9 C 94 % 1019,5 hPa 0,0 l/m 0 min 0 min 49 W/m 6,4 km/h (2 Bft) 97,87 %
22.05.2019 08:02 9,8 C 10,0 C 8,9 C 94 % 1019,5 hPa 0,0 l/m 0 min 0 min 47 W/m 6,4 km/h (2 Bft) 98,00 %
22.05.2019 08:04 9,8 C 10,0 C 8,9 C 93 % 1019,5 hPa 0,0 l/m 0 min 0 min 48 W/m 6,4 km/h (2 Bft) 97,87 %
22.05.2019 08:06 9,8 C 10,0 C 8,9 C 93 % 1019,6 hPa 0,0 l/m 0 min 0 min 52 W/m 6,4 km/h (2 Bft) 93,75 %
22.05.2019 08:08 9,9 C 10,0 C 9,4 C 93 % 1019,6 hPa 0,0 l/m 0 min 0 min 58 W/m 6,4 km/h (2 Bft) 97,87 %
22.05.2019 08:10 9,9 C 10,0 C 9,4 C 93 % 1019,6 hPa 0,0 l/m 0 min 0 min 61 W/m 9,7 km/h (2 Bft) 95,65 %
22.05.2019 08:12 9,9 C 10,0 C 9,4 C 93 % 1019,6 hPa 0,0 l/m 0 min 0 min 62 W/m 9,7 km/h (2 Bft) 95,35 %
22.05.2019 08:14 9,9 C 10,0 C 9,4 C 93 % 1019,7 hPa 0,0 l/m 0 min 0 min 65 W/m 6,4 km/h (2 Bft) 97,96 %
22.05.2019 08:16 9,9 C 10,0 C 9,4 C 93 % 1019,7 hPa 0,0 l/m 0 min 0 min 65 W/m 6,4 km/h (2 Bft) 97,96 %
22.05.2019 08:18 9,9 C 10,0 C 9,4 C 93 % 1019,7 hPa 0,0 l/m 0 min 0 min 62 W/m 3,2 km/h (1 Bft) 100,00 %
22.05.2019 08:20 10,0 C 10,0 C 9,4 C 93 % 1019,7 hPa 0,0 l/m 0 min 0 min 63 W/m 3,2 km/h (1 Bft) 100,00 %
22.05.2019 08:22 10,0 C 10,6 C 9,4 C 93 % 1019,8 hPa 0,0 l/m 0 min 0 min 68 W/m 3,2 km/h (1 Bft) 97,87 %
22.05.2019 08:24 10,0 C 10,6 C 9,4 C 93 % 1019,8 hPa 0,0 l/m 0 min 0 min 71 W/m 9,7 km/h (2 Bft) 100,00 %
22.05.2019 08:26 10,1 C 10,6 C 9,4 C 93 % 1019,8 hPa 0,0 l/m 0 min 0 min 77 W/m 12,9 km/h (3 Bft) 100,00 %
22.05.2019 08:28 10,1 C 10,6 C 9,4 C 93 % 1019,8 hPa 0,0 l/m 0 min 0 min 81 W/m 9,7 km/h (2 Bft) 100,00 %
22.05.2019 08:30 10,1 C 10,6 C 9,4 C 93 % 1019,8 hPa 0,0 l/m 0 min 0 min 81 W/m 6,4 km/h (2 Bft) 97,92 %
22.05.2019 08:32 10,1 C 10,6 C 9,4 C 92 % 1019,8 hPa 0,0 l/m 0 min 0 min 82 W/m 9,7 km/h (2 Bft) 100,00 %
22.05.2019 08:34 10,1 C 10,6 C 9,4 C 92 % 1019,8 hPa 0,0 l/m 0 min 0 min 82 W/m 9,7 km/h (2 Bft) 100,00 %
22.05.2019 08:36 10,1 C 10,6 C 9,4 C 92 % 1019,8 hPa 0,0 l/m 0 min 0 min 81 W/m 9,7 km/h (2 Bft) 100,00 %
22.05.2019 08:38 10,1 C 10,6 C 9,4 C 92 % 1019,8 hPa 0,0 l/m 0 min 0 min 81 W/m 9,7 km/h (2 Bft) 100,00 %
22.05.2019 08:40 10,2 C 10,6 C 9,4 C 92 % 1019,8 hPa 0,0 l/m 0 min 0 min 85 W/m 9,7 km/h (2 Bft) 100,00 %
22.05.2019 08:42 10,2 C 10,6 C 9,4 C 92 % 1019,8 hPa 0,0 l/m 0 min 0 min 88 W/m 12,9 km/h (3 Bft) 97,92 %
22.05.2019 08:44 10,2 C 10,6 C 9,4 C 92 % 1019,8 hPa 0,0 l/m 0 min 0 min 85 W/m 6,4 km/h (2 Bft) 100,00 %
22.05.2019 08:46 10,2 C 10,6 C 9,4 C 92 % 1019,8 hPa 0,0 l/m 0 min 0 min 85 W/m 6,4 km/h (2 Bft) 97,87 %
22.05.2019 08:48 10,2 C 10,6 C 9,4 C 92 % 1019,8 hPa 0,0 l/m 0 min 0 min 84 W/m 12,9 km/h (3 Bft) 100,00 %
22.05.2019 08:50 10,2 C 10,6 C 9,4 C 92 % 1019,9 hPa 0,0 l/m 0 min 0 min 86 W/m 9,7 km/h (2 Bft) 100,00 %
22.05.2019 08:52 10,3 C 10,6 C 10,0 C 91 % 1019,9 hPa 0,0 l/m 0 min 0 min 90 W/m 6,4 km/h (2 Bft) 100,00 %
22.05.2019 08:54 10,3 C 10,6 C 10,0 C 91 % 1019,9 hPa 0,0 l/m 0 min 0 min 91 W/m 12,9 km/h (3 Bft) 97,92 %
22.05.2019 08:56 10,3 C 10,6 C 10,0 C 91 % 1019,9 hPa 0,0 l/m 0 min 0 min 94 W/m 6,4 km/h (2 Bft) 97,87 %
22.05.2019 08:58 10,3 C 10,6 C 10,0 C 91 % 1019,8 hPa 0,0 l/m 0 min 0 min 95 W/m 9,7 km/h (2 Bft) 97,87 %
22.05.2019 09:00 10,3 C 11,1 C 10,0 C 91 % 1019,8 hPa 0,0 l/m 0 min 0 min 99 W/m 3,2 km/h (1 Bft) 97,87 %
22.05.2019 09:02 10,4 C 11,1 C 10,0 C 91 % 1019,9 hPa 0,0 l/m 0 min 0 min 100 W/m 6,4 km/h (2 Bft) 95,45 %
22.05.2019 09:04 10,4 C 10,6 C 10,0 C 91 % 1020,0 hPa 0,0 l/m 0 min 0 min 98 W/m 6,4 km/h (2 Bft) 97,83 %
22.05.2019 09:06 10,4 C 11,1 C 10,0 C 91 % 1020,0 hPa 0,0 l/m 0 min 0 min 99 W/m 6,4 km/h (2 Bft) 98,00 %
22.05.2019 09:08 10,4 C 11,1 C 10,0 C 91 % 1020,0 hPa 0,0 l/m 0 min 0 min 102 W/m 6,4 km/h (2 Bft) 97,87 %
22.05.2019 09:10 10,4 C 11,1 C 10,0 C 91 % 1020,0 hPa 0,0 l/m 0 min 0 min 103 W/m 12,9 km/h (3 Bft) 97,87 %
22.05.2019 09:12 10,4 C 11,1 C 10,0 C 91 % 1020,0 hPa 0,0 l/m 0 min 0 min 104 W/m 6,4 km/h (2 Bft) 97,87 %
22.05.2019 09:14 10,5 C 11,1 C 10,0 C 90 % 1020,0 hPa 0,0 l/m 0 min 0 min 104 W/m 6,4 km/h (2 Bft) 97,67 %
22.05.2019 09:16 10,5 C 11,1 C 10,0 C 90 % 1020,0 hPa 0,0 l/m 0 min 0 min 110 W/m 12,9 km/h (3 Bft) 97,92 %
22.05.2019 09:18 10,5 C 11,1 C 10,0 C 90 % 1020,0 hPa 0,0 l/m 0 min 0 min 118 W/m 6,4 km/h (2 Bft) 97,96 %
22.05.2019 09:20 10,6 C 11,1 C 10,0 C 90 % 1020,0 hPa 0,0 l/m 0 min 0 min 124 W/m 6,4 km/h (2 Bft) 95,74 %
22.05.2019 09:22 10,6 C 11,1 C 10,6 C 90 % 1020,0 hPa 0,0 l/m 0 min 0 min 140 W/m 3,2 km/h (1 Bft) 95,74 %
22.05.2019 09:24 10,6 C 11,7 C 10,6 C 90 % 1020,0 hPa 0,0 l/m 0 min 0 min 148 W/m 6,4 km/h (2 Bft) 95,74 %
22.05.2019 09:26 10,7 C 11,7 C 10,6 C 90 % 1020,0 hPa 0,0 l/m 0 min 0 min 152 W/m 6,4 km/h (2 Bft) 95,35 %
22.05.2019 09:28 10,7 C 11,7 C 10,6 C 90 % 1020,1 hPa 0,0 l/m 0 min 0 min 153 W/m 6,4 km/h (2 Bft) 97,92 %
22.05.2019 09:30 10,7 C 11,7 C 10,6 C 90 % 1020,1 hPa 0,0 l/m 0 min 0 min 146 W/m 6,4 km/h (2 Bft) 97,96 %
22.05.2019 09:32 10,8 C 12,2 C 10,6 C 90 % 1020,1 hPa 0,0 l/m 0 min 0 min 152 W/m 3,2 km/h (1 Bft) 93,75 %
22.05.2019 09:34 10,8 C 12,2 C 10,6 C 90 % 1020,1 hPa 0,0 l/m 0 min 0 min 165 W/m 12,9 km/h (3 Bft) 93,62 %
22.05.2019 09:36 10,8 C 12,2 C 11,1 C 90 % 1020,1 hPa 0,0 l/m 0 min 0 min 185 W/m 6,4 km/h (2 Bft) 95,74 %
22.05.2019 09:38 10,8 C 12,2 C 11,1 C 90 % 1020,1 hPa 0,0 l/m 0 min 0 min 200 W/m 3,2 km/h (1 Bft) 97,62 %
22.05.2019 09:40 10,9 C 12,8 C 11,7 C 90 % 1020,1 hPa 0,0 l/m 0 min 0 min 205 W/m 6,4 km/h (2 Bft) 97,96 %
22.05.2019 09:42 10,9 C 12,8 C 11,7 C 90 % 1020,0 hPa 0,0 l/m 0 min 0 min 205 W/m 6,4 km/h (2 Bft) 97,96 %
22.05.2019 09:44 11,0 C 12,8 C 11,7 C 90 % 1020,1 hPa 0,0 l/m 0 min 0 min 207 W/m 6,4 km/h (2 Bft) 97,87 %
22.05.2019 09:46 11,1 C 13,3 C 11,7 C 90 % 1020,1 hPa 0,0 l/m 0 min 0 min 229 W/m 6,4 km/h (2 Bft) 100,00 %
22.05.2019 09:48 11,1 C 13,3 C 12,2 C 90 % 1020,1 hPa 0,0 l/m 0 min 0 min 253 W/m 3,2 km/h (1 Bft) 100,00 %
22.05.2019 09:50 11,2 C 13,9 C 12,2 C 90 % 1020,1 hPa 0,0 l/m 0 min 0 min 259 W/m 9,7 km/h (2 Bft) 97,62 %
22.05.2019 09:52 11,2 C 13,9 C 12,2 C 89 % 1020,1 hPa 0,0 l/m 0 min 0 min 248 W/m 6,4 km/h (2 Bft) 95,92 %
22.05.2019 09:54 11,3 C 13,9 C 12,2 C 89 % 1020,2 hPa 0,0 l/m 0 min 0 min 239 W/m 6,4 km/h (2 Bft) 93,88 %
22.05.2019 09:56 11,4 C 13,9 C 12,2 C 89 % 1020,2 hPa 0,0 l/m 0 min 0 min 231 W/m 9,7 km/h (2 Bft) 95,74 %
22.05.2019 09:58 11,4 C 13,9 C 12,2 C 89 % 1020,2 hPa 0,0 l/m 0 min 0 min 208 W/m 3,2 km/h (1 Bft) 93,62 %
22.05.2019 10:00 11,5 C 13,9 C 12,2 C 89 % 1020,2 hPa 0,0 l/m 0 min 0 min 201 W/m 6,4 km/h (2 Bft) 93,62 %
22.05.2019 10:02 11,5 C 13,3 C 12,2 C 88 % 1020,2 hPa 0,0 l/m 0 min 0 min 206 W/m 16,1 km/h (3 Bft) 95,24 %
22.05.2019 10:04 11,6 C 13,9 C 12,2 C 88 % 1020,2 hPa 0,0 l/m 0 min 0 min 214 W/m 6,4 km/h (2 Bft) 95,74 %
22.05.2019 10:06 11,6 C 13,9 C 12,2 C 88 % 1020,2 hPa 0,0 l/m 0 min 0 min 223 W/m 6,4 km/h (2 Bft) 96,00 %
22.05.2019 10:08 11,7 C 13,9 C 12,2 C 88 % 1020,2 hPa 0,0 l/m 0 min 0 min 222 W/m 12,9 km/h (3 Bft) 93,88 %
22.05.2019 10:10 11,7 C 13,9 C 12,2 C 88 % 1020,1 hPa 0,0 l/m 0 min 0 min 208 W/m 6,4 km/h (2 Bft) 93,62 %
22.05.2019 10:12 11,8 C 13,9 C 12,2 C 88 % 1020,2 hPa 0,0 l/m 0 min 0 min 220 W/m 3,2 km/h (1 Bft) 93,62 %
22.05.2019 10:14 11,8 C 13,9 C 12,2 C 87 % 1020,1 hPa 0,0 l/m 0 min 0 min 227 W/m 6,4 km/h (2 Bft) 97,87 %
22.05.2019 10:16 11,8 C 13,9 C 12,2 C 87 % 1020,1 hPa 0,0 l/m 0 min 0 min 233 W/m 6,4 km/h (2 Bft) 92,86 %
22.05.2019 10:18 11,9 C 13,9 C 12,2 C 87 % 1020,2 hPa 0,0 l/m 0 min 0 min 243 W/m 6,4 km/h (2 Bft) 93,88 %
22.05.2019 10:20 11,9 C 13,9 C 12,2 C 87 % 1020,2 hPa 0,0 l/m 0 min 0 min 237 W/m 12,9 km/h (3 Bft) 95,92 %
22.05.2019 10:22 11,9 C 13,9 C 12,8 C 86 % 1020,2 hPa 0,0 l/m 0 min 0 min 263 W/m 6,4 km/h (2 Bft) 95,74 %
22.05.2019 10:24 12,0 C 14,4 C 12,8 C 86 % 1020,1 hPa 0,0 l/m 0 min 0 min 317 W/m 6,4 km/h (2 Bft) 95,74 %
22.05.2019 10:26 12,1 C 15,0 C 13,9 C 86 % 1020,2 hPa 0,0 l/m 2 min 0 min 346 W/m 6,4 km/h (2 Bft) 97,87 %
22.05.2019 10:28 12,1 C 16,1 C 13,9 C 86 % 1020,2 hPa 0,0 l/m 2 min 0 min 367 W/m 6,4 km/h (2 Bft) 95,24 %
22.05.2019 10:30 12,2 C 17,8 C 15,6 C 87 % 1020,2 hPa 0,0 l/m 2 min 0 min 427 W/m 6,4 km/h (2 Bft) 97,96 %
22.05.2019 10:32 12,4 C 17,8 C 15,6 C 87 % 1020,2 hPa 0,0 l/m 2 min 0 min 411 W/m 6,4 km/h (2 Bft) 97,96 %
22.05.2019 10:34 12,4 C 17,2 C 16,1 C 86 % 1020,2 hPa 0,0 l/m 2 min 0 min 413 W/m 6,4 km/h (2 Bft) 97,87 %
22.05.2019 10:36 12,6 C 16,7 C 15,0 C 85 % 1020,3 hPa 0,0 l/m 0 min 0 min 313 W/m 9,7 km/h (2 Bft) 95,74 %
22.05.2019 10:38 12,6 C 16,1 C 14,4 C 84 % 1020,2 hPa 0,0 l/m 0 min 0 min 242 W/m 6,4 km/h (2 Bft) 97,56 %
22.05.2019 10:40 12,7 C 15,6 C 14,4 C 84 % 1020,2 hPa 0,0 l/m 0 min 0 min 242 W/m 6,4 km/h (2 Bft) 95,92 %
22.05.2019 10:42 12,7 C 15,6 C 14,4 C 84 % 1020,3 hPa 0,0 l/m 0 min 0 min 216 W/m 6,4 km/h (2 Bft) 95,92 %
22.05.2019 10:44 12,8 C 16,1 C 15,0 C 84 % 1020,3 hPa 0,0 l/m 0 min 0 min 242 W/m 12,9 km/h (3 Bft) 97,92 %
22.05.2019 10:46 12,9 C 17,2 C 15,6 C 84 % 1020,4 hPa 0,0 l/m 0 min 0 min 269 W/m 16,1 km/h (3 Bft) 97,87 %
22.05.2019 10:48 12,9 C 18,3 C 16,7 C 83 % 1020,3 hPa 0,0 l/m 0 min 0 min 288 W/m 6,4 km/h (2 Bft) 97,87 %
22.05.2019 10:50 13,1 C 21,7 C 20,0 C 84 % 1020,4 hPa 0,0 l/m 2 min 0 min 943 W/m 9,7 km/h (2 Bft) 97,56 %
22.05.2019 10:52 13,3 C 21,1 C 19,4 C 84 % 1020,3 hPa 0,0 l/m 2 min 0 min 741 W/m 6,4 km/h (2 Bft) 95,92 %
22.05.2019 10:54 13,4 C 19,4 C 17,8 C 82 % 1020,3 hPa 0,0 l/m 2 min 0 min 408 W/m 6,4 km/h (2 Bft) 95,92 %
22.05.2019 10:56 13,6 C 18,9 C 17,8 C 82 % 1020,3 hPa 0,0 l/m 2 min 0 min 390 W/m 6,4 km/h (2 Bft) 97,92 %
22.05.2019 10:58 13,6 C 17,2 C 16,7 C 81 % 1020,3 hPa 0,0 l/m 0 min 0 min 340 W/m 6,4 km/h (2 Bft) 97,87 %
22.05.2019 11:00 13,7 C 16,1 C 15,6 C 80 % 1020,2 hPa 0,0 l/m 0 min 0 min 258 W/m 19,3 km/h (3 Bft) 97,87 %
22.05.2019 11:02 13,7 C 17,8 C 16,7 C 80 % 1020,3 hPa 0,0 l/m 0 min 0 min 251 W/m 12,9 km/h (3 Bft) 97,56 %
22.05.2019 11:04 13,8 C 20,0 C 18,9 C 81 % 1020,3 hPa 0,0 l/m 2 min 0 min 976 W/m 6,4 km/h (2 Bft) 97,87 %
22.05.2019 11:06 13,9 C 19,4 C 18,3 C 80 % 1020,4 hPa 0,0 l/m 2 min 0 min 746 W/m 16,1 km/h (3 Bft) 98,00 %
22.05.2019 11:08 14,0 C 20,6 C 19,4 C 80 % 1020,3 hPa 0,0 l/m 0 min 0 min 338 W/m 6,4 km/h (2 Bft) 95,92 %
22.05.2019 11:10 14,2 C 19,4 C 18,3 C 80 % 1020,4 hPa 0,0 l/m 0 min 0 min 348 W/m 12,9 km/h (3 Bft) 97,87 %
22.05.2019 11:12 14,2 C 18,3 C 17,2 C 78 % 1020,3 hPa 0,0 l/m 0 min 0 min 288 W/m 9,7 km/h (2 Bft) 97,87 %
22.05.2019 11:14 14,2 C 17,2 C 16,7 C 79 % 1020,3 hPa 0,0 l/m 0 min 0 min 266 W/m 9,7 km/h (2 Bft) 97,83 %
22.05.2019 11:16 14,2 C 16,7 C 16,1 C 78 % 1020,3 hPa 0,0 l/m 0 min 0 min 239 W/m 6,4 km/h (2 Bft) 95,35 %
22.05.2019 11:18 14,2 C 19,4 C 18,9 C 79 % 1020,3 hPa 0,0 l/m 0 min 0 min 248 W/m 6,4 km/h (2 Bft) 97,96 %
22.05.2019 11:20 14,3 C 21,1 C 20,0 C 80 % 1020,3 hPa 0,0 l/m 2 min 0 min 870 W/m 6,4 km/h (2 Bft) 97,96 %
22.05.2019 11:22 14,4 C 21,1 C 20,0 C 78 % 1020,3 hPa 0,0 l/m 2 min 0 min 617 W/m 12,9 km/h (3 Bft) 93,62 %
22.05.2019 11:24 14,6 C 22,8 C 22,2 C 79 % 1020,3 hPa 0,0 l/m 2 min 0 min 713 W/m 6,4 km/h (2 Bft) 95,74 %
22.05.2019 11:26 14,8 C 23,3 C 22,8 C 78 % 1020,3 hPa 0,0 l/m 2 min 0 min 900 W/m 9,7 km/h (2 Bft) 93,48 %
22.05.2019 11:28 14,9 C 23,9 C 22,8 C 78 % 1020,3 hPa 0,0 l/m 2 min 0 min 890 W/m 12,9 km/h (3 Bft) 95,35 %
22.05.2019 11:30 15,1 C 25,0 C 23,9 C 77 % 1020,2 hPa 0,0 l/m 2 min 0 min 861 W/m 9,7 km/h (2 Bft) 95,92 %
22.05.2019 11:32 15,2 C 25,0 C 24,4 C 77 % 1020,3 hPa 0,0 l/m 2 min 0 min 878 W/m 12,9 km/h (3 Bft) 96,00 %
22.05.2019 11:34 15,4 C 25,0 C 24,4 C 76 % 1020,3 hPa 0,0 l/m 2 min 0 min 886 W/m 6,4 km/h (2 Bft) 97,87 %
22.05.2019 11:36 15,6 C 24,4 C 23,9 C 76 % 1020,3 hPa 0,0 l/m 2 min 0 min 919 W/m 9,7 km/h (2 Bft) 97,87 %
22.05.2019 11:38 15,8 C 26,1 C 25,0 C 75 % 1020,3 hPa 0,0 l/m 2 min 0 min 967 W/m 3,2 km/h (1 Bft) 95,65 %
22.05.2019 11:40 15,9 C 25,6 C 24,4 C 76 % 1020,4 hPa 0,0 l/m 2 min 0 min 986 W/m 6,4 km/h (2 Bft) 97,67 %
22.05.2019 11:42 16,2 C 26,7 C 25,6 C 75 % 1020,3 hPa 0,0 l/m 2 min 0 min 1033 W/m 3,2 km/h (1 Bft) 95,92 %
22.05.2019 11:44 16,4 C 25,6 C 25,0 C 75 % 1020,3 hPa 0,0 l/m 2 min 0 min 1065 W/m 6,4 km/h (2 Bft) 97,96 %
22.05.2019 11:46 16,6 C 25,6 C 24,4 C 75 % 1020,2 hPa 0,0 l/m 2 min 0 min 998 W/m 6,4 km/h (2 Bft) 97,87 %
22.05.2019 11:48 16,7 C 22,8 C 22,2 C 74 % 1020,2 hPa 0,0 l/m 0 min 0 min 364 W/m 12,9 km/h (3 Bft) 97,87 %
22.05.2019 11:50 16,7 C 23,3 C 23,3 C 71 % 1020,3 hPa 0,0 l/m 2 min 0 min 642 W/m 9,7 km/h (2 Bft) 97,83 %
22.05.2019 11:52 16,7 C 24,4 C 23,9 C 70 % 1020,3 hPa 0,0 l/m 2 min 0 min 955 W/m 9,7 km/h (2 Bft) 97,67 %
22.05.2019 11:54 16,8 C 25,0 C 24,4 C 72 % 1020,4 hPa 0,0 l/m 2 min 0 min 944 W/m 9,7 km/h (2 Bft) 93,88 %
22.05.2019 11:56 16,9 C 25,6 C 25,0 C 71 % 1020,3 hPa 0,0 l/m 2 min 0 min 946 W/m 9,7 km/h (2 Bft) 95,92 %
22.05.2019 11:58 17,0 C 25,6 C 24,4 C 71 % 1020,4 hPa 0,0 l/m 2 min 0 min 936 W/m 9,7 km/h (2 Bft) 95,74 %
22.05.2019 12:00 17,1 C 26,7 C 25,6 C 71 % 1020,3 hPa 0,0 l/m 2 min 0 min 956 W/m 9,7 km/h (2 Bft) 94,59 %
22.05.2019 12:02 17,2 C 25,6 C 25,6 C 70 % 1020,4 hPa 0,0 l/m 2 min 0 min 929 W/m 6,4 km/h (2 Bft) 95,83 %
22.05.2019 12:04 17,3 C 25,6 C 25,0 C 69 % 1020,3 hPa 0,0 l/m 2 min 0 min 942 W/m 9,7 km/h (2 Bft) 97,83 %
22.05.2019 12:08 17,5 C 27,8 C 26,7 C 70 % 1020,3 hPa 0,0 l/m 4 min 0 min 952 W/m 9,7 km/h (2 Bft) 96,67 %
22.05.2019 12:10 17,6 C 26,1 C 26,1 C 70 % 1020,3 hPa 0,0 l/m 2 min 0 min 967 W/m 9,7 km/h (2 Bft) 97,96 %
22.05.2019 12:12 17,7 C 26,1 C 26,1 C 68 % 1020,3 hPa 0,0 l/m 2 min 0 min 950 W/m 6,4 km/h (2 Bft) 97,92 %
22.05.2019 12:14 17,7 C 25,6 C 26,1 C 69 % 1020,3 hPa 0,0 l/m 2 min 0 min 944 W/m 6,4 km/h (2 Bft) 95,83 %
22.05.2019 12:16 17,8 C 25,0 C 25,0 C 68 % 1020,4 hPa 0,0 l/m 2 min 0 min 942 W/m 9,7 km/h (2 Bft) 97,83 %
22.05.2019 12:18 17,8 C 24,4 C 25,6 C 66 % 1020,3 hPa 0,0 l/m 2 min 0 min 958 W/m 19,3 km/h (3 Bft) 97,87 %
22.05.2019 12:20 17,8 C 23,9 C 24,4 C 66 % 1020,3 hPa 0,0 l/m 2 min 0 min 951 W/m 12,9 km/h (3 Bft) 97,67 %
22.05.2019 12:22 17,8 C 24,4 C 25,0 C 67 % 1020,4 hPa 0,0 l/m 2 min 0 min 941 W/m 6,4 km/h (2 Bft) 97,96 %
22.05.2019 12:24 17,9 C 26,1 C 26,7 C 69 % 1020,4 hPa 0,0 l/m 2 min 0 min 944 W/m 9,7 km/h (2 Bft) 97,96 %
22.05.2019 12:26 18,0 C 27,2 C 27,2 C 70 % 1020,4 hPa 0,0 l/m 2 min 0 min 978 W/m 6,4 km/h (2 Bft) 97,87 %
22.05.2019 12:28 18,1 C 25,6 C 26,1 C 67 % 1020,4 hPa 0,0 l/m 2 min 0 min 989 W/m 12,9 km/h (3 Bft) 97,83 %
22.05.2019 12:30 18,1 C 26,1 C 26,7 C 68 % 1020,3 hPa 0,0 l/m 2 min 0 min 992 W/m 6,4 km/h (2 Bft) 95,74 %
22.05.2019 12:32 18,2 C 27,2 C 27,8 C 68 % 1020,4 hPa 0,0 l/m 2 min 0 min 1032 W/m 9,7 km/h (2 Bft) 100,00 %
22.05.2019 12:34 18,4 C 27,2 C 27,8 C 69 % 1020,4 hPa 0,0 l/m 2 min 0 min 1000 W/m 9,7 km/h (2 Bft) 100,00 %
22.05.2019 12:36 18,5 C 26,7 C 27,2 C 69 % 1020,3 hPa 0,0 l/m 2 min 0 min 766 W/m 12,9 km/h (3 Bft) 100,00 %
22.05.2019 12:38 18,6 C 26,7 C 27,2 C 67 % 1020,4 hPa 0,0 l/m 2 min 0 min 850 W/m 12,9 km/h (3 Bft) 100,00 %
22.05.2019 12:40 18,6 C 25,6 C 25,6 C 65 % 1020,3 hPa 0,0 l/m 2 min 0 min 970 W/m 16,1 km/h (3 Bft) 100,00 %
22.05.2019 12:42 18,6 C 25,0 C 25,6 C 64 % 1020,2 hPa 0,0 l/m 2 min 0 min 962 W/m 9,7 km/h (2 Bft) 100,00 %
22.05.2019 12:44 18,7 C 26,7 C 26,7 C 68 % 1020,3 hPa 0,0 l/m 2 min 0 min 1001 W/m 12,9 km/h (3 Bft) 100,00 %
22.05.2019 12:46 18,8 C 27,2 C 27,2 C 66 % 1020,3 hPa 0,0 l/m 2 min 0 min 1028 W/m 9,7 km/h (2 Bft) 100,00 %
22.05.2019 12:48 18,8 C 26,7 C 27,8 C 65 % 1020,2 hPa 0,0 l/m 2 min 0 min 1048 W/m 9,7 km/h (2 Bft) 100,00 %
22.05.2019 12:50 18,9 C 27,2 C 27,8 C 66 % 1020,2 hPa 0,0 l/m 2 min 0 min 1001 W/m 3,2 km/h (1 Bft) 100,00 %
22.05.2019 12:52 18,9 C 25,6 C 26,7 C 66 % 1020,2 hPa 0,0 l/m 2 min 0 min 797 W/m 3,2 km/h (1 Bft) 100,00 %
22.05.2019 12:54 18,9 C 25,6 C 25,6 C 67 % 1020,2 hPa 0,0 l/m 2 min 0 min 825 W/m 12,9 km/h (3 Bft) 100,00 %
22.05.2019 12:56 18,9 C 26,1 C 27,2 C 66 % 1020,2 hPa 0,0 l/m 2 min 0 min 1017 W/m 3,2 km/h (1 Bft) 97,96 %
22.05.2019 12:58 19,1 C 27,8 C 28,9 C 69 % 1020,2 hPa 0,0 l/m 2 min 0 min 1003 W/m 6,4 km/h (2 Bft) 100,00 %
22.05.2019 13:00 19,2 C 26,7 C 27,8 C 67 % 1020,2 hPa 0,0 l/m 2 min 0 min 972 W/m 6,4 km/h (2 Bft) 100,00 %
22.05.2019 13:02 19,3 C 27,8 C 28,3 C 67 % 1020,2 hPa 0,0 l/m 2 min 0 min 979 W/m 9,7 km/h (2 Bft) 100,00 %
22.05.2019 13:04 19,3 C 26,1 C 27,2 C 63 % 1020,3 hPa 0,0 l/m 2 min 0 min 1010 W/m 9,7 km/h (2 Bft) 100,00 %
22.05.2019 13:06 19,3 C 26,1 C 27,2 C 63 % 1020,2 hPa 0,0 l/m 2 min 0 min 1030 W/m 12,9 km/h (3 Bft) 100,00 %
22.05.2019 13:08 19,3 C 26,1 C 27,2 C 64 % 1020,2 hPa 0,0 l/m 2 min 0 min 1049 W/m 16,1 km/h (3 Bft) 100,00 %
22.05.2019 13:10 19,3 C 26,7 C 27,2 C 63 % 1020,2 hPa 0,0 l/m 2 min 0 min 1053 W/m 9,7 km/h (2 Bft) 100,00 %
22.05.2019 13:12 19,4 C 27,2 C 28,3 C 64 % 1020,2 hPa 0,0 l/m 2 min 0 min 1037 W/m 9,7 km/h (2 Bft) 100,00 %
22.05.2019 13:14 19,4 C 26,1 C 28,3 C 62 % 1020,1 hPa 0,0 l/m 2 min 0 min 1022 W/m 12,9 km/h (3 Bft) 100,00 %
22.05.2019 13:16 19,5 C 25,6 C 27,8 C 64 % 1020,2 hPa 0,0 l/m 2 min 0 min 1004 W/m 9,7 km/h (2 Bft) 100,00 %
22.05.2019 13:18 19,4 C 25,6 C 27,2 C 63 % 1020,2 hPa 0,0 l/m 2 min 0 min 1070 W/m 16,1 km/h (3 Bft) 100,00 %
22.05.2019 13:20 19,5 C 25,0 C 27,2 C 65 % 1020,2 hPa 0,0 l/m 2 min 0 min 1014 W/m 12,9 km/h (3 Bft) 100,00 %
22.05.2019 13:22 19,6 C 26,7 C 27,8 C 66 % 1020,3 hPa 0,0 l/m 2 min 0 min 1047 W/m 9,7 km/h (2 Bft) 100,00 %
22.05.2019 13:24 19,7 C 27,2 C 28,3 C 65 % 1020,3 hPa 0,0 l/m 2 min 0 min 1035 W/m 12,9 km/h (3 Bft) 100,00 %
22.05.2019 13:26 19,8 C 27,8 C 28,9 C 66 % 1020,3 hPa 0,0 l/m 2 min 0 min 1057 W/m 12,9 km/h (3 Bft) 100,00 %
22.05.2019 13:28 19,9 C 27,2 C 28,3 C 64 % 1020,3 hPa 0,0 l/m 2 min 0 min 1072 W/m 16,1 km/h (3 Bft) 100,00 %
22.05.2019 13:30 19,9 C 26,1 C 26,7 C 64 % 1020,3 hPa 0,0 l/m 2 min 0 min 656 W/m 6,4 km/h (2 Bft) 100,00 %
22.05.2019 13:32 19,9 C 26,7 C 27,2 C 62 % 1020,2 hPa 0,0 l/m 2 min 0 min 913 W/m 6,4 km/h (2 Bft) 97,87 %
22.05.2019 13:34 20,0 C 27,2 C 27,8 C 64 % 1020,2 hPa 0,0 l/m 2 min 0 min 1131 W/m 9,7 km/h (2 Bft) 100,00 %
22.05.2019 13:36 20,1 C 25,6 C 26,7 C 64 % 1020,3 hPa 0,0 l/m 2 min 0 min 1125 W/m 6,4 km/h (2 Bft) 100,00 %
22.05.2019 13:38 20,1 C 25,0 C 26,1 C 61 % 1020,2 hPa 0,0 l/m 2 min 0 min 1125 W/m 16,1 km/h (3 Bft) 100,00 %
22.05.2019 13:40 20,2 C 25,0 C 26,7 C 62 % 1020,2 hPa 0,0 l/m 2 min 0 min 1117 W/m 9,7 km/h (2 Bft) 100,00 %
22.05.2019 13:42 20,2 C 25,0 C 27,8 C 61 % 1020,2 hPa 0,0 l/m 2 min 0 min 1121 W/m 9,7 km/h (2 Bft) 100,00 %
22.05.2019 13:44 20,2 C 25,0 C 27,8 C 61 % 1020,2 hPa 0,0 l/m 2 min 0 min 1113 W/m 12,9 km/h (3 Bft) 97,87 %
22.05.2019 13:46 20,3 C 26,1 C 27,8 C 63 % 1020,1 hPa 0,0 l/m 2 min 0 min 1112 W/m 9,7 km/h (2 Bft) 100,00 %
22.05.2019 13:48 20,3 C 25,6 C 27,2 C 62 % 1020,1 hPa 0,0 l/m 2 min 0 min 1129 W/m 9,7 km/h (2 Bft) 100,00 %
22.05.2019 13:50 20,3 C 26,7 C 27,8 C 62 % 1020,1 hPa 0,0 l/m 2 min 0 min 1061 W/m 9,7 km/h (2 Bft) 100,00 %
22.05.2019 13:52 20,3 C 26,1 C 27,8 C 62 % 1020,1 hPa 0,0 l/m 2 min 0 min 1018 W/m 9,7 km/h (2 Bft) 100,00 %
22.05.2019 13:54 20,4 C 26,1 C 28,3 C 63 % 1020,1 hPa 0,0 l/m 2 min 0 min 1001 W/m 6,4 km/h (2 Bft) 100,00 %
22.05.2019 13:56 20,4 C 26,1 C 28,3 C 60 % 1020,1 hPa 0,0 l/m 2 min 0 min 1007 W/m 16,1 km/h (3 Bft) 100,00 %
22.05.2019 13:58 20,5 C 26,1 C 28,3 C 63 % 1020,1 hPa 0,0 l/m 2 min 0 min 999 W/m 12,9 km/h (3 Bft) 95,35 %
22.05.2019 14:00 20,5 C 26,1 C 28,3 C 61 % 1020,1 hPa 0,0 l/m 2 min 0 min 997 W/m 12,9 km/h (3 Bft) 97,87 %
22.05.2019 14:02 20,6 C 27,2 C 28,3 C 60 % 1020,1 hPa 0,0 l/m 2 min 0 min 993 W/m 6,4 km/h (2 Bft) 96,00 %
22.05.2019 14:04 20,6 C 27,2 C 28,3 C 62 % 1020,1 hPa 0,0 l/m 2 min 0 min 989 W/m 9,7 km/h (2 Bft) 97,87 %
22.05.2019 14:06 20,6 C 27,2 C 28,9 C 59 % 1020,0 hPa 0,0 l/m 2 min 0 min 973 W/m 12,9 km/h (3 Bft) 93,75 %
22.05.2019 14:08 20,7 C 27,8 C 29,4 C 61 % 1020,0 hPa 0,0 l/m 2 min 0 min 956 W/m 6,4 km/h (2 Bft) 97,87 %
22.05.2019 14:10 20,8 C 27,2 C 29,4 C 60 % 1020,0 hPa 0,0 l/m 2 min 0 min 936 W/m 9,7 km/h (2 Bft) 97,87 %
22.05.2019 14:12 20,9 C 27,8 C 30,0 C 62 % 1020,0 hPa 0,0 l/m 2 min 0 min 946 W/m 6,4 km/h (2 Bft) 95,24 %
22.05.2019 14:14 20,9 C 27,2 C 29,4 C 60 % 1020,0 hPa 0,0 l/m 2 min 0 min 952 W/m 12,9 km/h (3 Bft) 93,88 %
22.05.2019 14:16 21,0 C 27,2 C 28,9 C 60 % 1020,0 hPa 0,0 l/m 2 min 0 min 953 W/m 12,9 km/h (3 Bft) 95,92 %
22.05.2019 14:18 21,1 C 27,2 C 28,9 C 59 % 1020,0 hPa 0,0 l/m 2 min 0 min 973 W/m 6,4 km/h (2 Bft) 95,74 %
22.05.2019 14:20 21,1 C 27,2 C 29,4 C 60 % 1020,0 hPa 0,0 l/m 2 min 0 min 997 W/m 6,4 km/h (2 Bft) 95,74 %
22.05.2019 14:22 21,2 C 27,2 C 27,8 C 60 % 1020,0 hPa 0,0 l/m 2 min 0 min 1018 W/m 12,9 km/h (3 Bft) 95,74 %
22.05.2019 14:24 21,3 C 27,2 C 28,3 C 60 % 1020,0 hPa 0,0 l/m 2 min 0 min 1064 W/m 9,7 km/h (2 Bft) 95,24 %
22.05.2019 14:26 21,3 C 26,7 C 27,8 C 58 % 1020,0 hPa 0,0 l/m 2 min 0 min 1095 W/m 9,7 km/h (2 Bft) 95,92 %
22.05.2019 14:28 21,3 C 24,4 C 26,1 C 58 % 1020,0 hPa 0,0 l/m 2 min 0 min 1017 W/m 9,7 km/h (2 Bft) 93,88 %
22.05.2019 14:30 21,2 C 23,3 C 23,9 C 56 % 1020,0 hPa 0,0 l/m 0 min 0 min 356 W/m 12,9 km/h (3 Bft) 95,74 %
22.05.2019 14:32 21,2 C 25,0 C 25,6 C 57 % 1020,0 hPa 0,0 l/m 2 min 0 min 690 W/m 6,4 km/h (2 Bft) 93,62 %
22.05.2019 14:34 21,2 C 26,1 C 25,6 C 60 % 1020,0 hPa 0,0 l/m 2 min 0 min 1074 W/m 9,7 km/h (2 Bft) 95,65 %
22.05.2019 14:36 21,3 C 27,8 C 24,4 C 60 % 1020,0 hPa 0,0 l/m 2 min 0 min 1079 W/m 9,7 km/h (2 Bft) 95,24 %
22.05.2019 14:38 21,3 C 26,7 C 23,9 C 58 % 1020,0 hPa 0,0 l/m 2 min 0 min 1106 W/m 6,4 km/h (2 Bft) 95,92 %
22.05.2019 14:40 21,4 C 27,2 C 24,4 C 58 % 1020,0 hPa 0,0 l/m 2 min 0 min 1097 W/m 9,7 km/h (2 Bft) 95,92 %
22.05.2019 14:42 21,4 C 26,1 C 23,9 C 60 % 1020,0 hPa 0,0 l/m 2 min 0 min 588 W/m 12,9 km/h (3 Bft) 95,83 %
22.05.2019 14:44 21,5 C 26,7 C 24,4 C 60 % 1020,0 hPa 0,0 l/m 2 min 0 min 951 W/m 9,7 km/h (2 Bft) 93,62 %
22.05.2019 14:46 21,6 C 26,7 C 23,3 C 58 % 1020,0 hPa 0,0 l/m 2 min 0 min 1089 W/m 12,9 km/h (3 Bft) 95,65 %
22.05.2019 14:48 21,6 C 25,0 C 22,8 C 57 % 1020,1 hPa 0,0 l/m 2 min 0 min 879 W/m 6,4 km/h (2 Bft) 97,62 %
22.05.2019 14:50 21,6 C 23,3 C 21,7 C 56 % 1020,0 hPa 0,0 l/m 0 min 0 min 334 W/m 12,9 km/h (3 Bft) 95,92 %
22.05.2019 14:52 21,5 C 22,2 C 21,1 C 56 % 1020,0 hPa 0,0 l/m 0 min 0 min 304 W/m 9,7 km/h (2 Bft) 100,00 %
22.05.2019 14:54 21,4 C 21,7 C 20,6 C 56 % 1020,0 hPa 0,0 l/m 0 min 0 min 301 W/m 9,7 km/h (2 Bft) 100,00 %
22.05.2019 14:56 21,3 C 23,9 C 21,1 C 57 % 1020,0 hPa 0,0 l/m 2 min 0 min 632 W/m 6,4 km/h (2 Bft) 100,00 %
22.05.2019 14:58 21,3 C 24,4 C 21,7 C 58 % 1020,0 hPa 0,0 l/m 2 min 0 min 964 W/m 9,7 km/h (2 Bft) 100,00 %
22.05.2019 15:00 21,2 C 25,0 C 21,1 C 57 % 1019,9 hPa 0,0 l/m 2 min 0 min 938 W/m 9,7 km/h (2 Bft) 97,87 %
22.05.2019 15:02 21,2 C 25,0 C 21,1 C 57 % 1019,9 hPa 0,0 l/m 2 min 0 min 926 W/m 6,4 km/h (2 Bft) 100,00 %
22.05.2019 15:04 21,2 C 26,1 C 21,1 C 59 % 1019,9 hPa 0,0 l/m 2 min 0 min 927 W/m 12,9 km/h (3 Bft) 100,00 %
22.05.2019 15:06 21,3 C 25,6 C 21,1 C 58 % 1019,9 hPa 0,0 l/m 2 min 0 min 945 W/m 9,7 km/h (2 Bft) 100,00 %
22.05.2019 15:08 21,3 C 25,0 C 21,1 C 57 % 1019,9 hPa 0,0 l/m 2 min 0 min 964 W/m 12,9 km/h (3 Bft) 97,92 %
22.05.2019 15:10 21,2 C 25,0 C 21,1 C 57 % 1019,9 hPa 0,0 l/m 2 min 0 min 993 W/m 9,7 km/h (2 Bft) 100,00 %
22.05.2019 15:12 21,3 C 25,6 C 21,1 C 59 % 1019,8 hPa 0,0 l/m 2 min 0 min 1021 W/m 9,7 km/h (2 Bft) 100,00 %
22.05.2019 15:14 21,3 C 25,6 C 21,1 C 57 % 1019,9 hPa 0,0 l/m 2 min 0 min 1035 W/m 6,4 km/h (2 Bft) 100,00 %
22.05.2019 15:16 21,3 C 23,3 C 20,6 C 56 % 1019,8 hPa 0,0 l/m 2 min 0 min 898 W/m 9,7 km/h (2 Bft) 100,00 %
22.05.2019 15:18 21,2 C 22,2 C 20,6 C 56 % 1019,8 hPa 0,0 l/m 0 min 0 min 304 W/m 9,7 km/h (2 Bft) 100,00 %
22.05.2019 15:20 21,2 C 21,7 C 20,6 C 56 % 1019,8 hPa 0,0 l/m 0 min 0 min 294 W/m 6,4 km/h (2 Bft) 100,00 %
22.05.2019 15:22 21,1 C 20,6 C 20,0 C 57 % 1019,7 hPa 0,0 l/m 0 min 0 min 306 W/m 9,7 km/h (2 Bft) 100,00 %
22.05.2019 15:24 21,0 C 21,1 C 20,0 C 57 % 1019,7 hPa 0,0 l/m 0 min 0 min 332 W/m 22,5 km/h (4 Bft) 100,00 %
22.05.2019 15:26 20,8 C 21,1 C 20,6 C 57 % 1019,8 hPa 0,0 l/m 0 min 0 min 359 W/m 9,7 km/h (2 Bft) 100,00 %
22.05.2019 15:28 20,8 C 21,1 C 20,0 C 57 % 1019,8 hPa 0,0 l/m 0 min 0 min 324 W/m 22,5 km/h (4 Bft) 97,96 %
22.05.2019 15:30 20,7 C 21,1 C 20,0 C 58 % 1019,7 hPa 0,0 l/m 0 min 0 min 306 W/m 6,4 km/h (2 Bft) 100,00 %
22.05.2019 15:32 20,6 C 21,1 C 20,0 C 58 % 1019,7 hPa 0,0 l/m 0 min 0 min 301 W/m 9,7 km/h (2 Bft) 100,00 %
22.05.2019 15:34 20,5 C 20,6 C 19,4 C 57 % 1019,8 hPa 0,0 l/m 0 min 0 min 294 W/m 16,1 km/h (3 Bft) 100,00 %
22.05.2019 15:36 20,4 C 20,6 C 19,4 C 61 % 1019,7 hPa 0,0 l/m 0 min 0 min 287 W/m 9,7 km/h (2 Bft) 97,62 %
22.05.2019 15:38 20,3 C 20,6 C 19,4 C 59 % 1019,7 hPa 0,0 l/m 0 min 0 min 299 W/m 6,4 km/h (2 Bft) 97,96 %
22.05.2019 15:40 20,3 C 20,6 C 19,4 C 60 % 1019,7 hPa 0,0 l/m 0 min 0 min 314 W/m 9,7 km/h (2 Bft) 100,00 %
22.05.2019 15:42 20,2 C 21,1 C 19,4 C 59 % 1019,7 hPa 0,0 l/m 0 min 0 min 337 W/m 9,7 km/h (2 Bft) 100,00 %
22.05.2019 15:44 20,2 C 21,1 C 19,4 C 61 % 1019,7 hPa 0,0 l/m 0 min 0 min 356 W/m 12,9 km/h (3 Bft) 100,00 %
22.05.2019 15:46 20,2 C 22,2 C 20,0 C 61 % 1019,7 hPa 0,0 l/m 2 min 0 min 390 W/m 6,4 km/h (2 Bft) 97,83 %
22.05.2019 15:48 20,2 C 22,2 C 20,0 C 61 % 1019,8 hPa 0,0 l/m 2 min 0 min 379 W/m 6,4 km/h (2 Bft) 100,00 %
22.05.2019 15:50 20,2 C 22,2 C 20,0 C 60 % 1019,7 hPa 0,0 l/m 2 min 0 min 385 W/m 6,4 km/h (2 Bft) 100,00 %
22.05.2019 15:52 20,2 C 22,2 C 20,0 C 59 % 1019,8 hPa 0,0 l/m 2 min 0 min 406 W/m 12,9 km/h (3 Bft) 100,00 %
22.05.2019 15:54 20,2 C 22,2 C 20,0 C 60 % 1019,8 hPa 0,0 l/m 2 min 0 min 445 W/m 6,4 km/h (2 Bft) 97,92 %
22.05.2019 15:56 20,2 C 22,8 C 20,0 C 59 % 1019,7 hPa 0,0 l/m 2 min 0 min 753 W/m 12,9 km/h (3 Bft) 97,87 %
22.05.2019 15:58 20,2 C 23,3 C 20,6 C 61 % 1019,8 hPa 0,0 l/m 2 min 0 min 955 W/m 12,9 km/h (3 Bft) 97,83 %
22.05.2019 16:00 20,3 C 23,3 C 20,6 C 59 % 1019,8 hPa 0,0 l/m 2 min 0 min 857 W/m 6,4 km/h (2 Bft) 97,87 %
22.05.2019 16:02 20,4 C 23,3 C 20,6 C 60 % 1019,8 hPa 0,0 l/m 2 min 0 min 854 W/m 9,7 km/h (2 Bft) 97,73 %
22.05.2019 16:04 20,5 C 23,9 C 20,6 C 60 % 1019,7 hPa 0,0 l/m 2 min 0 min 845 W/m 6,4 km/h (2 Bft) 95,74 %
22.05.2019 16:06 20,6 C 23,3 C 20,6 C 59 % 1019,7 hPa 0,0 l/m 2 min 0 min 800 W/m 6,4 km/h (2 Bft) 95,92 %
22.05.2019 16:08 20,7 C 22,8 C 20,0 C 59 % 1019,7 hPa 0,0 l/m 2 min 0 min 779 W/m 6,4 km/h (2 Bft) 95,83 %
22.05.2019 16:10 20,8 C 22,8 C 20,0 C 59 % 1019,7 hPa 0,0 l/m 2 min 0 min 764 W/m 6,4 km/h (2 Bft) 97,83 %
22.05.2019 16:12 20,8 C 22,2 C 20,0 C 56 % 1019,7 hPa 0,0 l/m 2 min 0 min 747 W/m 12,9 km/h (3 Bft) 97,87 %
22.05.2019 16:14 20,9 C 22,2 C 20,0 C 57 % 1019,6 hPa 0,0 l/m 2 min 0 min 746 W/m 6,4 km/h (2 Bft) 97,67 %
22.05.2019 16:16 21,0 C 22,2 C 20,0 C 56 % 1019,6 hPa 0,0 l/m 2 min 0 min 746 W/m 12,9 km/h (3 Bft) 95,92 %
22.05.2019 16:18 21,1 C 22,8 C 20,0 C 59 % 1019,6 hPa 0,0 l/m 2 min 0 min 745 W/m 6,4 km/h (2 Bft) 97,92 %
22.05.2019 16:20 21,2 C 22,8 C 20,6 C 60 % 1019,6 hPa 0,0 l/m 2 min 0 min 766 W/m 6,4 km/h (2 Bft) 95,74 %
22.05.2019 16:22 21,3 C 22,8 C 20,0 C 59 % 1019,6 hPa 0,0 l/m 2 min 0 min 758 W/m 12,9 km/h (3 Bft) 97,87 %
22.05.2019 16:24 21,4 C 21,7 C 20,0 C 57 % 1019,5 hPa 0,0 l/m 2 min 0 min 712 W/m 9,7 km/h (2 Bft) 97,87 %
22.05.2019 16:26 21,4 C 21,7 C 20,0 C 56 % 1019,6 hPa 0,0 l/m 2 min 0 min 767 W/m 12,9 km/h (3 Bft) 97,67 %
22.05.2019 16:28 21,4 C 21,7 C 20,0 C 56 % 1019,6 hPa 0,0 l/m 2 min 0 min 762 W/m 9,7 km/h (2 Bft) 97,96 %
22.05.2019 16:30 21,4 C 22,2 C 19,4 C 56 % 1019,5 hPa 0,0 l/m 2 min 0 min 752 W/m 9,7 km/h (2 Bft) 97,92 %
22.05.2019 16:32 21,5 C 22,2 C 20,0 C 57 % 1019,6 hPa 0,0 l/m 2 min 0 min 723 W/m 9,7 km/h (2 Bft) 97,92 %
22.05.2019 16:34 21,5 C 22,2 C 20,0 C 56 % 1019,6 hPa 0,0 l/m 2 min 0 min 729 W/m 9,7 km/h (2 Bft) 97,87 %
22.05.2019 16:36 21,5 C 21,7 C 20,0 C 55 % 1019,6 hPa 0,0 l/m 2 min 0 min 493 W/m 6,4 km/h (2 Bft) 95,74 %
22.05.2019 16:38 21,5 C 21,7 C 19,4 C 54 % 1019,6 hPa 0,0 l/m 0 min 0 min 244 W/m 6,4 km/h (2 Bft) 95,35 %
22.05.2019 16:40 21,5 C 21,1 C 19,4 C 55 % 1019,6 hPa 0,0 l/m 0 min 0 min 236 W/m 19,3 km/h (3 Bft) 95,92 %
22.05.2019 16:42 21,4 C 21,1 C 19,4 C 55 % 1019,6 hPa 0,0 l/m 0 min 0 min 268 W/m 6,4 km/h (2 Bft) 95,83 %
22.05.2019 16:44 21,3 C 21,1 C 19,4 C 57 % 1019,6 hPa 0,0 l/m 2 min 0 min 332 W/m 6,4 km/h (2 Bft) 95,74 %
22.05.2019 16:46 21,3 C 20,6 C 19,4 C 55 % 1019,6 hPa 0,0 l/m 0 min 0 min 318 W/m 9,7 km/h (2 Bft) 95,74 %
22.05.2019 16:48 21,2 C 20,6 C 19,4 C 55 % 1019,6 hPa 0,0 l/m 2 min 0 min 340 W/m 9,7 km/h (2 Bft) 95,74 %
22.05.2019 16:50 21,2 C 21,1 C 19,4 C 56 % 1019,5 hPa 0,0 l/m 2 min 0 min 369 W/m 6,4 km/h (2 Bft) 95,35 %
22.05.2019 16:52 21,2 C 21,7 C 20,0 C 58 % 1019,5 hPa 0,0 l/m 2 min 0 min 352 W/m 3,2 km/h (1 Bft) 93,88 %
22.05.2019 16:54 21,2 C 21,7 C 20,0 C 59 % 1019,5 hPa 0,0 l/m 2 min 0 min 352 W/m 9,7 km/h (2 Bft) 91,67 %
22.05.2019 16:56 21,1 C 21,1 C 20,6 C 56 % 1019,5 hPa 0,0 l/m 2 min 0 min 447 W/m 9,7 km/h (2 Bft) 93,62 %
22.05.2019 16:58 21,1 C 20,6 C 20,6 C 55 % 1019,5 hPa 0,0 l/m 2 min 0 min 801 W/m 9,7 km/h (2 Bft) 95,74 %
22.05.2019 17:00 21,1 C 20,0 C 20,0 C 54 % 1019,5 hPa 0,0 l/m 2 min 0 min 733 W/m 9,7 km/h (2 Bft) 93,62 %
22.05.2019 17:02 21,0 C 20,6 C 19,4 C 53 % 1019,4 hPa 0,0 l/m 0 min 0 min 262 W/m 3,2 km/h (1 Bft) 95,35 %
22.05.2019 17:04 21,1 C 20,6 C 20,0 C 54 % 1019,4 hPa 0,0 l/m 0 min 0 min 258 W/m 6,4 km/h (2 Bft) 95,74 %
22.05.2019 17:06 21,0 C 21,1 C 20,0 C 55 % 1019,4 hPa 0,0 l/m 0 min 0 min 257 W/m 6,4 km/h (2 Bft) 95,92 %
22.05.2019 17:08 21,0 C 21,1 C 19,4 C 55 % 1019,4 hPa 0,0 l/m 0 min 0 min 252 W/m 3,2 km/h (1 Bft) 93,88 %
22.05.2019 17:10 21,0 C 20,6 C 19,4 C 55 % 1019,4 hPa 0,0 l/m 0 min 0 min 227 W/m 9,7 km/h (2 Bft) 95,74 %
22.05.2019 17:12 20,9 C 20,0 C 19,4 C 54 % 1019,4 hPa 0,0 l/m 0 min 0 min 204 W/m 12,9 km/h (3 Bft) 95,74 %
22.05.2019 17:14 20,8 C 20,0 C 19,4 C 55 % 1019,3 hPa 0,0 l/m 0 min 0 min 188 W/m 9,7 km/h (2 Bft) 95,74 %
22.05.2019 17:16 20,8 C 20,0 C 18,9 C 56 % 1019,3 hPa 0,0 l/m 0 min 0 min 162 W/m 9,7 km/h (2 Bft) 95,24 %
22.05.2019 17:18 20,7 C 20,0 C 18,9 C 57 % 1019,4 hPa 0,0 l/m 0 min 0 min 139 W/m 6,4 km/h (2 Bft) 93,88 %
22.05.2019 17:20 20,6 C 20,0 C 18,9 C 56 % 1019,3 hPa 0,0 l/m 0 min 0 min 135 W/m 9,7 km/h (2 Bft) 97,96 %
22.05.2019 17:22 20,5 C 19,4 C 18,3 C 56 % 1019,4 hPa 0,0 l/m 0 min 0 min 136 W/m 9,7 km/h (2 Bft) 93,62 %
22.05.2019 17:24 20,4 C 19,4 C 18,3 C 58 % 1019,4 hPa 0,0 l/m 0 min 0 min 147 W/m 6,4 km/h (2 Bft) 97,87 %
22.05.2019 17:26 20,3 C 19,4 C 18,3 C 57 % 1019,3 hPa 0,0 l/m 0 min 0 min 167 W/m 9,7 km/h (2 Bft) 95,74 %
22.05.2019 17:28 20,2 C 19,4 C 18,3 C 59 % 1019,4 hPa 0,0 l/m 0 min 0 min 193 W/m 6,4 km/h (2 Bft) 97,62 %
22.05.2019 17:30 20,2 C 19,4 C 18,3 C 59 % 1019,4 hPa 0,0 l/m 0 min 0 min 264 W/m 16,1 km/h (3 Bft) 95,92 %
22.05.2019 17:32 20,1 C 20,6 C 19,4 C 60 % 1019,4 hPa 0,0 l/m 2 min 0 min 350 W/m 6,4 km/h (2 Bft) 97,96 %
22.05.2019 17:34 20,1 C 21,1 C 20,0 C 61 % 1019,3 hPa 0,0 l/m 2 min 0 min 533 W/m 9,7 km/h (2 Bft) 95,74 %
22.05.2019 17:36 20,2 C 21,7 C 20,6 C 62 % 1019,3 hPa 0,0 l/m 2 min 0 min 594 W/m 12,9 km/h (3 Bft) 97,87 %
22.05.2019 17:38 20,3 C 21,7 C 20,6 C 62 % 1019,3 hPa 0,0 l/m 2 min 0 min 585 W/m 6,4 km/h (2 Bft) 97,62 %
22.05.2019 17:40 20,4 C 21,7 C 20,6 C 59 % 1019,2 hPa 0,0 l/m 2 min 0 min 564 W/m 6,4 km/h (2 Bft) 97,92 %
22.05.2019 17:42 20,5 C 21,1 C 20,0 C 58 % 1019,3 hPa 0,0 l/m 2 min 0 min 463 W/m 9,7 km/h (2 Bft) 97,96 %
22.05.2019 17:44 20,6 C 20,6 C 19,4 C 58 % 1019,2 hPa 0,0 l/m 0 min 0 min 135 W/m 3,2 km/h (1 Bft) 95,74 %
22.05.2019 17:46 20,6 C 20,0 C 18,9 C 57 % 1019,2 hPa 0,0 l/m 0 min 0 min 120 W/m 3,2 km/h (1 Bft) 100,00 %
22.05.2019 17:48 20,6 C 20,0 C 18,3 C 59 % 1019,2 hPa 0,0 l/m 0 min 0 min 128 W/m 9,7 km/h (2 Bft) 100,00 %
22.05.2019 17:50 20,6 C 19,4 C 18,3 C 58 % 1019,1 hPa 0,0 l/m 0 min 0 min 140 W/m 6,4 km/h (2 Bft) 97,87 %
22.05.2019 17:52 20,5 C 19,4 C 18,3 C 57 % 1019,1 hPa 0,0 l/m 0 min 0 min 145 W/m 6,4 km/h (2 Bft) 100,00 %
22.05.2019 17:54 20,4 C 19,4 C 18,3 C 56 % 1019,2 hPa 0,0 l/m 0 min 0 min 137 W/m 3,2 km/h (1 Bft) 100,00 %
22.05.2019 17:56 20,4 C 19,4 C 18,3 C 56 % 1019,2 hPa 0,0 l/m 0 min 0 min 133 W/m 3,2 km/h (1 Bft) 97,96 %
22.05.2019 17:58 20,4 C 19,4 C 18,3 C 57 % 1019,1 hPa 0,0 l/m 0 min 0 min 131 W/m 3,2 km/h (1 Bft) 100,00 %
22.05.2019 18:00 20,4 C 19,4 C 18,3 C 57 % 1019,1 hPa 0,0 l/m 0 min 0 min 160 W/m 6,4 km/h (2 Bft) 97,87 %
22.05.2019 18:02 20,3 C 19,4 C 18,3 C 58 % 1019,3 hPa 0,0 l/m 2 min 0 min 329 W/m 6,4 km/h (2 Bft) 100,00 %
22.05.2019 18:04 20,3 C 20,0 C 18,9 C 60 % 1019,2 hPa 0,0 l/m 2 min 0 min 524 W/m 6,4 km/h (2 Bft) 100,00 %
22.05.2019 18:08 20,4 C 21,7 C 20,0 C 61 % 1019,1 hPa 0,0 l/m 4 min 0 min 536 W/m 3,2 km/h (1 Bft) 100,00 %
22.05.2019 18:10 20,5 C 21,1 C 20,0 C 61 % 1019,1 hPa 0,0 l/m 2 min 0 min 492 W/m 12,9 km/h (3 Bft) 100,00 %
22.05.2019 18:12 20,5 C 21,1 C 20,0 C 58 % 1019,2 hPa 0,0 l/m 2 min 0 min 443 W/m 9,7 km/h (2 Bft) 97,96 %
22.05.2019 18:14 20,6 C 21,1 C 20,0 C 57 % 1019,2 hPa 0,0 l/m 2 min 0 min 449 W/m 16,1 km/h (3 Bft) 100,00 %
22.05.2019 18:16 20,6 C 20,6 C 20,0 C 57 % 1019,2 hPa 0,0 l/m 2 min 0 min 435 W/m 9,7 km/h (2 Bft) 100,00 %
22.05.2019 18:18 20,6 C 20,6 C 20,0 C 59 % 1019,2 hPa 0,0 l/m 2 min 0 min 364 W/m 6,4 km/h (2 Bft) 100,00 %
22.05.2019 18:20 20,7 C 20,6 C 20,6 C 59 % 1019,1 hPa 0,0 l/m 2 min 0 min 420 W/m 6,4 km/h (2 Bft) 97,87 %
22.05.2019 18:22 20,7 C 20,6 C 20,6 C 60 % 1019,1 hPa 0,0 l/m 2 min 0 min 396 W/m 6,4 km/h (2 Bft) 100,00 %
22.05.2019 18:24 20,8 C 21,1 C 20,6 C 60 % 1019,1 hPa 0,0 l/m 2 min 0 min 407 W/m 12,9 km/h (3 Bft) 97,96 %
22.05.2019 18:26 20,8 C 21,1 C 20,6 C 60 % 1019,1 hPa 0,0 l/m 2 min 0 min 402 W/m 6,4 km/h (2 Bft) 97,92 %
22.05.2019 18:28 20,8 C 20,6 C 20,0 C 59 % 1019,2 hPa 0,0 l/m 2 min 0 min 334 W/m 6,4 km/h (2 Bft) 100,00 %
22.05.2019 18:30 20,9 C 20,6 C 20,0 C 58 % 1019,1 hPa 0,0 l/m 2 min 0 min 293 W/m 9,7 km/h (2 Bft) 100,00 %
22.05.2019 18:32 20,8 C 20,0 C 19,4 C 57 % 1019,1 hPa 0,0 l/m 0 min 0 min 173 W/m 9,7 km/h (2 Bft) 100,00 %
22.05.2019 18:34 20,8 C 19,4 C 18,9 C 58 % 1019,1 hPa 0,0 l/m 0 min 0 min 148 W/m 6,4 km/h (2 Bft) 100,00 %
22.05.2019 18:36 20,7 C 19,4 C 18,9 C 57 % 1019,1 hPa 0,0 l/m 0 min 0 min 119 W/m 6,4 km/h (2 Bft) 100,00 %
22.05.2019 18:38 20,7 C 19,4 C 18,3 C 57 % 1019,1 hPa 0,0 l/m 0 min 0 min 119 W/m 6,4 km/h (2 Bft) 97,92 %
22.05.2019 18:40 20,6 C 18,9 C 18,3 C 59 % 1019,0 hPa 0,0 l/m 0 min 0 min 150 W/m 6,4 km/h (2 Bft) 100,00 %
22.05.2019 18:42 20,5 C 18,9 C 18,3 C 57 % 1019,0 hPa 0,0 l/m 0 min 0 min 116 W/m 9,7 km/h (2 Bft) 97,87 %
22.05.2019 18:44 20,4 C 18,9 C 18,3 C 57 % 1019,0 hPa 0,0 l/m 0 min 0 min 108 W/m 9,7 km/h (2 Bft) 100,00 %
22.05.2019 18:46 20,4 C 18,9 C 17,8 C 57 % 1019,1 hPa 0,0 l/m 0 min 0 min 95 W/m 6,4 km/h (2 Bft) 100,00 %
22.05.2019 18:48 20,3 C 18,9 C 17,8 C 59 % 1019,1 hPa 0,0 l/m 0 min 0 min 85 W/m 6,4 km/h (2 Bft) 100,00 %
22.05.2019 18:50 20,3 C 18,3 C 17,8 C 60 % 1019,1 hPa 0,0 l/m 0 min 0 min 83 W/m 6,4 km/h (2 Bft) 100,00 %
22.05.2019 18:52 20,2 C 18,3 C 17,8 C 59 % 1019,1 hPa 0,0 l/m 0 min 0 min 84 W/m 6,4 km/h (2 Bft) 100,00 %
22.05.2019 18:54 20,1 C 18,3 C 17,8 C 59 % 1019,1 hPa 0,0 l/m 0 min 0 min 89 W/m 3,2 km/h (1 Bft) 100,00 %
22.05.2019 18:56 20,0 C 18,3 C 17,8 C 59 % 1019,1 hPa 0,0 l/m 0 min 0 min 96 W/m 6,4 km/h (2 Bft) 97,87 %
22.05.2019 18:58 19,9 C 18,3 C 17,8 C 60 % 1019,0 hPa 0,0 l/m 0 min 0 min 106 W/m 3,2 km/h (1 Bft) 100,00 %
22.05.2019 19:00 19,8 C 18,3 C 17,8 C 60 % 1019,0 hPa 0,0 l/m 0 min 0 min 115 W/m 9,7 km/h (2 Bft) 100,00 %
22.05.2019 19:02 19,7 C 18,3 C 17,8 C 59 % 1019,1 hPa 0,0 l/m 0 min 0 min 146 W/m 3,2 km/h (1 Bft) 97,83 %
22.05.2019 19:04 19,6 C 18,9 C 17,8 C 59 % 1019,1 hPa 0,0 l/m 2 min 0 min 206 W/m 0,0 km/h (0 Bft) 100,00 %
22.05.2019 19:06 19,6 C 18,9 C 18,3 C 60 % 1019,0 hPa 0,0 l/m 2 min 0 min 192 W/m 0,0 km/h (0 Bft) 100,00 %
22.05.2019 19:08 19,6 C 18,9 C 18,3 C 60 % 1019,1 hPa 0,0 l/m 2 min 0 min 216 W/m 6,4 km/h (2 Bft) 97,87 %
22.05.2019 19:10 19,6 C 19,4 C 18,3 C 59 % 1019,0 hPa 0,0 l/m 2 min 0 min 196 W/m 9,7 km/h (2 Bft) 95,74 %
22.05.2019 19:12 19,5 C 19,4 C 18,3 C 59 % 1019,1 hPa 0,0 l/m 2 min 0 min 262 W/m 9,7 km/h (2 Bft) 95,74 %
22.05.2019 19:14 19,5 C 19,4 C 18,9 C 59 % 1019,0 hPa 0,0 l/m 2 min 0 min 215 W/m 6,4 km/h (2 Bft) 97,62 %
22.05.2019 19:16 19,5 C 19,4 C 18,3 C 61 % 1019,0 hPa 0,0 l/m 2 min 0 min 159 W/m 3,2 km/h (1 Bft) 97,96 %
22.05.2019 19:18 19,6 C 19,4 C 18,3 C 62 % 1019,0 hPa 0,0 l/m 0 min 0 min 107 W/m 9,7 km/h (2 Bft) 93,88 %
22.05.2019 19:20 19,5 C 18,9 C 17,8 C 61 % 1019,0 hPa 0,0 l/m 0 min 0 min 94 W/m 3,2 km/h (1 Bft) 91,49 %
22.05.2019 19:22 19,5 C 18,9 C 17,8 C 61 % 1019,0 hPa 0,0 l/m 0 min 0 min 102 W/m 6,4 km/h (2 Bft) 95,74 %
22.05.2019 19:24 19,4 C 18,9 C 17,8 C 60 % 1019,0 hPa 0,0 l/m 2 min 0 min 159 W/m 6,4 km/h (2 Bft) 97,87 %
22.05.2019 19:26 19,4 C 18,3 C 17,2 C 60 % 1019,0 hPa 0,0 l/m 2 min 0 min 144 W/m 6,4 km/h (2 Bft) 95,24 %
22.05.2019 19:28 19,4 C 18,3 C 17,2 C 61 % 1019,0 hPa 0,0 l/m 0 min 0 min 116 W/m 3,2 km/h (1 Bft) 93,88 %
22.05.2019 19:30 19,4 C 18,3 C 17,2 C 61 % 1019,0 hPa 0,0 l/m 0 min 0 min 107 W/m 6,4 km/h (2 Bft) 95,92 %
22.05.2019 19:32 19,4 C 18,3 C 17,2 C 62 % 1019,0 hPa 0,0 l/m 0 min 0 min 102 W/m 3,2 km/h (1 Bft) 95,74 %
22.05.2019 19:34 19,3 C 18,3 C 17,2 C 62 % 1019,0 hPa 0,0 l/m 0 min 0 min 102 W/m 3,2 km/h (1 Bft) 95,74 %
22.05.2019 19:36 19,3 C 18,3 C 17,2 C 62 % 1019,0 hPa 0,0 l/m 0 min 0 min 97 W/m 0,0 km/h (0 Bft) 97,62 %
22.05.2019 19:38 19,3 C 18,3 C 17,2 C 63 % 1019,1 hPa 0,0 l/m 0 min 0 min 85 W/m 3,2 km/h (1 Bft) 95,83 %
22.05.2019 19:40 19,3 C 18,3 C 17,2 C 62 % 1019,0 hPa 0,0 l/m 0 min 0 min 73 W/m 0,0 km/h (0 Bft) 95,92 %
22.05.2019 19:42 19,3 C 18,3 C 17,2 C 61 % 1019,0 hPa 0,0 l/m 0 min 0 min 61 W/m 3,2 km/h (1 Bft) 93,75 %
22.05.2019 19:44 19,2 C 17,8 C 16,7 C 62 % 1019,0 hPa 0,0 l/m 0 min 0 min 52 W/m 3,2 km/h (1 Bft) 95,74 %
22.05.2019 19:46 19,2 C 17,8 C 16,7 C 62 % 1019,0 hPa 0,0 l/m 0 min 0 min 51 W/m 3,2 km/h (1 Bft) 93,62 %
22.05.2019 19:48 19,2 C 17,8 C 16,7 C 61 % 1019,0 hPa 0,0 l/m 0 min 0 min 54 W/m 0,0 km/h (0 Bft) 92,86 %
22.05.2019 19:50 19,1 C 17,8 C 16,7 C 61 % 1019,0 hPa 0,0 l/m 0 min 0 min 54 W/m 3,2 km/h (1 Bft) 91,67 %
22.05.2019 19:52 19,1 C 17,8 C 16,7 C 61 % 1019,1 hPa 0,0 l/m 0 min 0 min 54 W/m 3,2 km/h (1 Bft) 95,92 %
22.05.2019 19:54 19,1 C 17,8 C 16,7 C 61 % 1019,0 hPa 0,0 l/m 0 min 0 min 58 W/m 0,0 km/h (0 Bft) 95,83 %
22.05.2019 19:56 19,0 C 17,8 C 16,7 C 61 % 1019,0 hPa 0,0 l/m 0 min 0 min 62 W/m 0,0 km/h (0 Bft) 95,74 %
22.05.2019 19:58 19,0 C 17,8 C 16,7 C 61 % 1019,0 hPa 0,0 l/m 0 min 0 min 62 W/m 3,2 km/h (1 Bft) 95,74 %
22.05.2019 20:00 19,0 C 17,2 C 16,7 C 62 % 1019,0 hPa 0,0 l/m 0 min 0 min 59 W/m 0,0 km/h (0 Bft) 95,74 %
22.05.2019 20:02 18,9 C 17,2 C 16,7 C 62 % 1019,0 hPa 0,0 l/m 0 min 0 min 56 W/m 0,0 km/h (0 Bft) 95,35 %
22.05.2019 20:04 18,9 C 17,2 C 16,7 C 62 % 1019,0 hPa 0,0 l/m 0 min 0 min 55 W/m 3,2 km/h (1 Bft) 93,62 %
22.05.2019 20:06 18,9 C 17,2 C 16,7 C 61 % 1019,0 hPa 0,0 l/m 0 min 0 min 50 W/m 3,2 km/h (1 Bft) 96,00 %
22.05.2019 20:08 18,8 C 17,2 C 16,1 C 61 % 1019,0 hPa 0,0 l/m 0 min 0 min 41 W/m 3,2 km/h (1 Bft) 95,74 %
22.05.2019 20:10 18,8 C 17,2 C 16,1 C 61 % 1019,0 hPa 0,0 l/m 0 min 0 min 36 W/m 3,2 km/h (1 Bft) 95,74 %
22.05.2019 20:12 18,8 C 17,2 C 16,1 C 61 % 1019,0 hPa 0,0 l/m 0 min 0 min 34 W/m 0,0 km/h (0 Bft) 91,49 %
22.05.2019 20:14 18,8 C 17,2 C 16,1 C 62 % 1019,0 hPa 0,0 l/m 0 min 0 min 36 W/m 0,0 km/h (0 Bft) 97,62 %
22.05.2019 20:16 18,7 C 17,2 C 16,1 C 62 % 1019,0 hPa 0,0 l/m 0 min 0 min 38 W/m 0,0 km/h (0 Bft) 95,92 %
22.05.2019 20:18 18,7 C 17,2 C 15,6 C 62 % 1019,1 hPa 0,0 l/m 0 min 0 min 33 W/m 3,2 km/h (1 Bft) 97,96 %
22.05.2019 20:20 18,6 C 17,2 C 15,6 C 62 % 1019,0 hPa 0,0 l/m 0 min 0 min 27 W/m 0,0 km/h (0 Bft) 97,87 %
22.05.2019 20:22 18,6 C 16,7 C 15,6 C 64 % 1019,1 hPa 0,0 l/m 0 min 0 min 26 W/m 0,0 km/h (0 Bft) 97,87 %
22.05.2019 20:24 18,6 C 16,7 C 15,6 C 65 % 1019,0 hPa 0,0 l/m 0 min 0 min 22 W/m 0,0 km/h (0 Bft) 97,87 %
22.05.2019 20:26 18,5 C 16,7 C 15,0 C 65 % 1019,0 hPa 0,0 l/m 0 min 0 min 19 W/m 0,0 km/h (0 Bft) 97,62 %
22.05.2019 20:28 18,4 C 16,7 C 15,0 C 65 % 1019,0 hPa 0,0 l/m 0 min 0 min 19 W/m 0,0 km/h (0 Bft) 97,96 %
22.05.2019 20:30 18,4 C 16,1 C 15,0 C 64 % 1019,0 hPa 0,0 l/m 0 min 0 min 18 W/m 0,0 km/h (0 Bft) 97,96 %
22.05.2019 20:32 18,4 C 16,1 C 15,0 C 64 % 1019,0 hPa 0,0 l/m 0 min 0 min 18 W/m 0,0 km/h (0 Bft) 98,00 %
22.05.2019 20:34 18,3 C 16,1 C 15,0 C 64 % 1019,0 hPa 0,0 l/m 0 min 0 min 15 W/m 0,0 km/h (0 Bft) 97,87 %
22.05.2019 20:36 18,3 C 16,1 C 15,0 C 64 % 1019,0 hPa 0,0 l/m 0 min 0 min 13 W/m 0,0 km/h (0 Bft) 100,00 %
22.05.2019 20:38 18,3 C 16,1 C 15,0 C 64 % 1018,9 hPa 0,0 l/m 0 min 0 min 12 W/m 0,0 km/h (0 Bft) 97,87 %
22.05.2019 20:40 18,2 C 16,1 C 15,0 C 65 % 1019,0 hPa 0,0 l/m 0 min 0 min 11 W/m 0,0 km/h (0 Bft) 97,67 %
22.05.2019 20:42 18,2 C 16,1 C 15,0 C 65 % 1019,1 hPa 0,0 l/m 0 min 0 min 11 W/m 0,0 km/h (0 Bft) 95,92 %
22.05.2019 20:44 18,1 C 16,1 C 15,0 C 65 % 1019,0 hPa 0,0 l/m 0 min 0 min 9 W/m 0,0 km/h (0 Bft) 97,92 %
22.05.2019 20:46 18,1 C 16,1 C 15,0 C 65 % 1019,0 hPa 0,0 l/m 0 min 0 min 9 W/m 0,0 km/h (0 Bft) 100,00 %
22.05.2019 20:48 18,1 C 16,1 C 15,0 C 65 % 1019,0 hPa 0,0 l/m 0 min 0 min 9 W/m 0,0 km/h (0 Bft) 100,00 %
22.05.2019 20:50 18,0 C 16,1 C 15,0 C 65 % 1019,1 hPa 0,0 l/m 0 min 0 min 9 W/m 0,0 km/h (0 Bft) 97,87 %
22.05.2019 20:52 17,9 C 16,1 C 15,0 C 65 % 1019,1 hPa 0,0 l/m 0 min 0 min 11 W/m 0,0 km/h (0 Bft) 97,67 %
22.05.2019 20:54 17,9 C 16,1 C 15,0 C 66 % 1019,2 hPa 0,0 l/m 0 min 0 min 11 W/m 0,0 km/h (0 Bft) 100,00 %
22.05.2019 20:56 17,8 C 16,1 C 15,0 C 66 % 1019,1 hPa 0,0 l/m 0 min 0 min 11 W/m 0,0 km/h (0 Bft) 97,92 %
22.05.2019 20:58 17,8 C 16,1 C 14,4 C 67 % 1019,2 hPa 0,0 l/m 0 min 0 min 11 W/m 0,0 km/h (0 Bft) 100,00 %
22.05.2019 21:00 17,8 C 16,1 C 14,4 C 67 % 1019,1 hPa 0,0 l/m 0 min 0 min 9 W/m 0,0 km/h (0 Bft) 100,00 %
22.05.2019 21:02 17,7 C 15,6 C 14,4 C 67 % 1019,1 hPa 0,0 l/m 0 min 0 min 8 W/m 0,0 km/h (0 Bft) 100,00 %
22.05.2019 21:04 17,7 C 15,6 C 14,4 C 67 % 1019,1 hPa 0,0 l/m 0 min 0 min 7 W/m 0,0 km/h (0 Bft) 100,00 %
22.05.2019 21:06 17,7 C 15,6 C 14,4 C 67 % 1019,1 hPa 0,0 l/m 0 min 0 min 7 W/m 0,0 km/h (0 Bft) 100,00 %
22.05.2019 21:08 17,6 C 15,6 C 13,9 C 67 % 1019,1 hPa 0,0 l/m 0 min 0 min 5 W/m 0,0 km/h (0 Bft) 100,00 %
22.05.2019 21:10 17,6 C 15,6 C 13,9 C 67 % 1019,1 hPa 0,0 l/m 0 min 0 min 5 W/m 0,0 km/h (0 Bft) 100,00 %
22.05.2019 21:12 17,5 C 15,6 C 13,9 C 67 % 1019,2 hPa 0,0 l/m 0 min 0 min 5 W/m 0,0 km/h (0 Bft) 100,00 %
22.05.2019 21:14 17,4 C 15,0 C 13,9 C 67 % 1019,2 hPa 0,0 l/m 0 min 0 min 2 W/m 0,0 km/h (0 Bft) 100,00 %
22.05.2019 21:16 17,4 C 15,0 C 13,9 C 68 % 1019,2 hPa 0,0 l/m 0 min 0 min 0 W/m 0,0 km/h (0 Bft) 100,00 %
22.05.2019 21:18 17,3 C 15,0 C 13,9 C 68 % 1019,3 hPa 0,0 l/m 0 min 0 min 0 W/m 0,0 km/h (0 Bft) 97,87 %
22.05.2019 21:20 17,3 C 15,6 C 13,9 C 69 % 1019,3 hPa 0,0 l/m 0 min 0 min 0 W/m 0,0 km/h (0 Bft) 100,00 %
22.05.2019 21:22 17,3 C 15,0 C 13,9 C 69 % 1019,3 hPa 0,0 l/m 0 min 0 min 0 W/m 0,0 km/h (0 Bft) 100,00 %
22.05.2019 21:24 17,2 C 15,0 C 13,9 C 69 % 1019,3 hPa 0,0 l/m 0 min 0 min 0 W/m 0,0 km/h (0 Bft) 100,00 %
22.05.2019 21:26 17,2 C 15,0 C 13,9 C 68 % 1019,3 hPa 0,0 l/m 0 min 0 min 0 W/m 0,0 km/h (0 Bft) 100,00 %
22.05.2019 21:28 17,2 C 15,0 C 13,9 C 68 % 1019,4 hPa 0,0 l/m 0 min 0 min 0 W/m 0,0 km/h (0 Bft) 100,00 %
22.05.2019 21:30 17,1 C 15,0 C 13,9 C 68 % 1019,4 hPa 0,0 l/m 0 min 0 min 0 W/m 0,0 km/h (0 Bft) 100,00 %
22.05.2019 21:32 17,1 C 15,0 C 13,9 C 69 % 1019,4 hPa 0,0 l/m 0 min 0 min 0 W/m 0,0 km/h (0 Bft) 100,00 %
22.05.2019 21:34 17,0 C 15,0 C 13,9 C 69 % 1019,4 hPa 0,0 l/m 0 min 0 min 0 W/m 0,0 km/h (0 Bft) 100,00 %
22.05.2019 21:36 17,0 C 15,0 C 13,9 C 69 % 1019,4 hPa 0,0 l/m 0 min 0 min 0 W/m 0,0 km/h (0 Bft) 100,00 %
22.05.2019 21:38 16,9 C 15,0 C 13,9 C 69 % 1019,5 hPa 0,0 l/m 0 min 0 min 0 W/m 0,0 km/h (0 Bft) 100,00 %
22.05.2019 21:40 16,9 C 15,0 C 13,9 C 69 % 1019,4 hPa 0,0 l/m 0 min 0 min 0 W/m 0,0 km/h (0 Bft) 100,00 %
22.05.2019 21:42 16,9 C 15,0 C 13,9 C 70 % 1019,5 hPa 0,0 l/m 0 min 0 min 0 W/m 3,2 km/h (1 Bft) 97,87 %
22.05.2019 21:44 16,8 C 15,0 C 13,9 C 71 % 1019,5 hPa 0,0 l/m 0 min 0 min 0 W/m 6,4 km/h (2 Bft) 97,62 %
22.05.2019 21:46 16,8 C 15,0 C 13,9 C 71 % 1019,5 hPa 0,0 l/m 0 min 0 min 0 W/m 3,2 km/h (1 Bft) 97,96 %
22.05.2019 21:48 16,7 C 15,0 C 13,9 C 71 % 1019,5 hPa 0,0 l/m 0 min 0 min 0 W/m 9,7 km/h (2 Bft) 100,00 %
22.05.2019 21:50 16,7 C 15,0 C 14,4 C 70 % 1019,5 hPa 0,0 l/m 0 min 0 min 0 W/m 6,4 km/h (2 Bft) 100,00 %
22.05.2019 21:52 16,6 C 15,0 C 14,4 C 70 % 1019,6 hPa 0,0 l/m 0 min 0 min 0 W/m 3,2 km/h (1 Bft) 100,00 %
22.05.2019 21:54 16,6 C 15,0 C 13,9 C 70 % 1019,6 hPa 0,0 l/m 0 min 0 min 0 W/m 0,0 km/h (0 Bft) 95,74 %
22.05.2019 21:56 16,6 C 15,0 C 14,4 C 70 % 1019,5 hPa 0,0 l/m 0 min 0 min 0 W/m 0,0 km/h (0 Bft) 95,24 %
22.05.2019 21:58 16,5 C 15,0 C 14,4 C 70 % 1019,6 hPa 0,0 l/m 0 min 0 min 0 W/m 0,0 km/h (0 Bft) 93,88 %
22.05.2019 22:00 16,5 C 15,0 C 13,9 C 70 % 1019,6 hPa 0,0 l/m 0 min 0 min 0 W/m 0,0 km/h (0 Bft) 97,87 %
22.05.2019 22:02 16,5 C 15,0 C 13,9 C 70 % 1019,6 hPa 0,0 l/m 0 min 0 min 0 W/m 0,0 km/h (0 Bft) 98,00 %
22.05.2019 22:04 16,4 C 15,0 C 13,9 C 70 % 1019,6 hPa 0,0 l/m 0 min 0 min 0 W/m 3,2 km/h (1 Bft) 93,62 %
22.05.2019 22:06 16,4 C 15,0 C 13,9 C 70 % 1019,6 hPa 0,0 l/m 0 min 0 min 0 W/m 6,4 km/h (2 Bft) 93,62 %
22.05.2019 22:08 16,4 C 14,4 C 13,9 C 70 % 1019,6 hPa 0,0 l/m 0 min 0 min 0 W/m 3,2 km/h (1 Bft) 95,74 %
22.05.2019 22:10 16,3 C 14,4 C 13,9 C 69 % 1019,7 hPa 0,0 l/m 0 min 0 min 0 W/m 6,4 km/h (2 Bft) 95,74 %
22.05.2019 22:12 16,3 C 14,4 C 13,9 C 69 % 1019,6 hPa 0,0 l/m 0 min 0 min 0 W/m 3,2 km/h (1 Bft) 93,48 %
22.05.2019 22:14 16,2 C 14,4 C 13,9 C 69 % 1019,7 hPa 0,0 l/m 0 min 0 min 0 W/m 3,2 km/h (1 Bft) 95,74 %
22.05.2019 22:16 16,2 C 14,4 C 13,3 C 69 % 1019,7 hPa 0,0 l/m 0 min 0 min 0 W/m 6,4 km/h (2 Bft) 95,35 %
22.05.2019 22:18 16,2 C 14,4 C 13,3 C 68 % 1019,6 hPa 0,0 l/m 0 min 0 min 0 W/m 3,2 km/h (1 Bft) 93,88 %
22.05.2019 22:20 16,1 C 14,4 C 13,3 C 69 % 1019,6 hPa 0,0 l/m 0 min 0 min 0 W/m 6,4 km/h (2 Bft) 93,88 %
22.05.2019 22:22 16,1 C 14,4 C 13,3 C 69 % 1019,6 hPa 0,0 l/m 0 min 0 min 0 W/m 6,4 km/h (2 Bft) 95,74 %
22.05.2019 22:24 16,0 C 13,9 C 13,3 C 68 % 1019,6 hPa 0,0 l/m 0 min 0 min 0 W/m 0,0 km/h (0 Bft) 95,65 %
22.05.2019 22:26 16,0 C 13,9 C 12,8 C 69 % 1019,8 hPa 0,0 l/m 0 min 0 min 0 W/m 0,0 km/h (0 Bft) 95,74 %
22.05.2019 22:28 15,9 C 13,9 C 12,8 C 69 % 1019,7 hPa 0,0 l/m 0 min 0 min 0 W/m 3,2 km/h (1 Bft) 95,35 %
22.05.2019 22:30 15,9 C 13,9 C 12,8 C 69 % 1019,7 hPa 0,0 l/m 0 min 0 min 0 W/m 3,2 km/h (1 Bft) 95,92 %
22.05.2019 22:32 15,8 C 13,9 C 12,8 C 69 % 1019,7 hPa 0,0 l/m 0 min 0 min 0 W/m 3,2 km/h (1 Bft) 93,88 %
22.05.2019 22:34 15,8 C 13,9 C 12,8 C 69 % 1019,7 hPa 0,0 l/m 0 min 0 min 0 W/m 3,2 km/h (1 Bft) 95,74 %
22.05.2019 22:36 15,8 C 13,9 C 12,8 C 69 % 1019,7 hPa 0,0 l/m 0 min 0 min 0 W/m 0,0 km/h (0 Bft) 95,65 %
22.05.2019 22:38 15,7 C 13,3 C 12,8 C 69 % 1019,7 hPa 0,0 l/m 0 min 0 min 0 W/m 3,2 km/h (1 Bft) 95,24 %
22.05.2019 22:40 15,7 C 13,3 C 12,2 C 69 % 1019,7 hPa 0,0 l/m 0 min 0 min 0 W/m 0,0 km/h (0 Bft) 93,88 %
22.05.2019 22:42 15,6 C 13,3 C 12,2 C 69 % 1019,7 hPa 0,0 l/m 0 min 0 min 0 W/m 0,0 km/h (0 Bft) 95,92 %
22.05.2019 22:44 15,6 C 13,3 C 12,2 C 69 % 1019,8 hPa 0,0 l/m 0 min 0 min 0 W/m 0,0 km/h (0 Bft) 95,65 %
22.05.2019 22:46 15,5 C 13,3 C 12,2 C 69 % 1019,8 hPa 0,0 l/m 0 min 0 min 0 W/m 0,0 km/h (0 Bft) 100,00 %
22.05.2019 22:48 15,4 C 13,3 C 12,2 C 69 % 1019,7 hPa 0,0 l/m 0 min 0 min 0 W/m 0,0 km/h (0 Bft) 100,00 %
22.05.2019 22:50 15,4 C 13,3 C 12,2 C 69 % 1019,7 hPa 0,0 l/m 0 min 0 min 0 W/m 0,0 km/h (0 Bft) 100,00 %
22.05.2019 22:52 15,3 C 12,8 C 12,2 C 69 % 1019,7 hPa 0,0 l/m 0 min 0 min 0 W/m 0,0 km/h (0 Bft) 97,62 %
22.05.2019 22:54 15,3 C 12,8 C 11,7 C 69 % 1019,7 hPa 0,0 l/m 0 min 0 min 0 W/m 0,0 km/h (0 Bft) 97,87 %
22.05.2019 22:56 15,2 C 12,8 C 11,7 C 70 % 1019,7 hPa 0,0 l/m 0 min 0 min 0 W/m 0,0 km/h (0 Bft) 100,00 %
22.05.2019 22:58 15,2 C 12,8 C 11,7 C 70 % 1019,7 hPa 0,0 l/m 0 min 0 min 0 W/m 0,0 km/h (0 Bft) 100,00 %
22.05.2019 23:00 15,1 C 12,8 C 11,7 C 70 % 1019,8 hPa 0,0 l/m 0 min 0 min 0 W/m 0,0 km/h (0 Bft) 100,00 %
22.05.2019 23:02 15,1 C 12,8 C 11,7 C 70 % 1019,8 hPa 0,0 l/m 0 min 0 min 0 W/m 0,0 km/h (0 Bft) 100,00 %
22.05.2019 23:04 15,0 C 12,2 C 11,7 C 70 % 1019,8 hPa 0,0 l/m 0 min 0 min 0 W/m 0,0 km/h (0 Bft) 100,00 %
22.05.2019 23:06 14,9 C 12,2 C 11,7 C 70 % 1019,7 hPa 0,0 l/m 0 min 0 min 0 W/m 0,0 km/h (0 Bft) 100,00 %
22.05.2019 23:08 14,9 C 12,2 C 11,7 C 70 % 1019,8 hPa 0,0 l/m 0 min 0 min 0 W/m 0,0 km/h (0 Bft) 100,00 %
22.05.2019 23:10 14,9 C 12,2 C 11,1 C 71 % 1019,8 hPa 0,0 l/m 0 min 0 min 0 W/m 6,4 km/h (2 Bft) 100,00 %
22.05.2019 23:12 14,8 C 12,8 C 11,7 C 71 % 1019,8 hPa 0,0 l/m 0 min 0 min 0 W/m 3,2 km/h (1 Bft) 100,00 %
22.05.2019 23:14 14,8 C 12,8 C 11,7 C 71 % 1019,8 hPa 0,0 l/m 0 min 0 min 0 W/m 3,2 km/h (1 Bft) 100,00 %
22.05.2019 23:16 14,7 C 12,2 C 11,7 C 71 % 1019,8 hPa 0,0 l/m 0 min 0 min 0 W/m 6,4 km/h (2 Bft) 100,00 %
22.05.2019 23:18 14,7 C 12,2 C 11,7 C 71 % 1019,9 hPa 0,0 l/m 0 min 0 min 0 W/m 6,4 km/h (2 Bft) 100,00 %
22.05.2019 23:20 14,6 C 12,2 C 11,7 C 71 % 1019,8 hPa 0,0 l/m 0 min 0 min 0 W/m 0,0 km/h (0 Bft) 100,00 %
22.05.2019 23:22 14,6 C 12,2 C 11,7 C 71 % 1019,8 hPa 0,0 l/m 0 min 0 min 0 W/m 0,0 km/h (0 Bft) 100,00 %
22.05.2019 23:24 14,5 C 12,2 C 11,7 C 72 % 1019,9 hPa 0,0 l/m 0 min 0 min 0 W/m 0,0 km/h (0 Bft) 97,87 %
22.05.2019 23:26 14,4 C 12,2 C 11,1 C 72 % 1019,9 hPa 0,0 l/m 0 min 0 min 0 W/m 0,0 km/h (0 Bft) 100,00 %
22.05.2019 23:28 14,4 C 11,7 C 11,1 C 72 % 1019,9 hPa 0,0 l/m 0 min 0 min 0 W/m 0,0 km/h (0 Bft) 100,00 %
22.05.2019 23:30 14,3 C 11,7 C 11,1 C 72 % 1019,9 hPa 0,0 l/m 0 min 0 min 0 W/m 0,0 km/h (0 Bft) 100,00 %
22.05.2019 23:32 14,2 C 11,7 C 11,1 C 72 % 1019,9 hPa 0,0 l/m 0 min 0 min 0 W/m 0,0 km/h (0 Bft) 100,00 %
22.05.2019 23:34 14,2 C 11,7 C 11,1 C 73 % 1020,0 hPa 0,0 l/m 0 min 0 min 0 W/m 0,0 km/h (0 Bft) 97,87 %
22.05.2019 23:36 14,2 C 11,7 C 11,1 C 73 % 1019,9 hPa 0,0 l/m 0 min 0 min 0 W/m 0,0 km/h (0 Bft) 97,87 %
22.05.2019 23:38 14,2 C 11,7 C 10,6 C 73 % 1020,0 hPa 0,0 l/m 0 min 0 min 0 W/m 0,0 km/h (0 Bft) 97,87 %
22.05.2019 23:40 14,1 C 11,7 C 10,6 C 73 % 1019,9 hPa 0,0 l/m 0 min 0 min 0 W/m 0,0 km/h (0 Bft) 97,87 %
22.05.2019 23:42 14,1 C 11,7 C 10,6 C 73 % 1019,9 hPa 0,0 l/m 0 min 0 min 0 W/m 0,0 km/h (0 Bft) 97,83 %
22.05.2019 23:44 14,0 C 11,7 C 10,6 C 73 % 1019,9 hPa 0,0 l/m 0 min 0 min 0 W/m 0,0 km/h (0 Bft) 97,87 %
22.05.2019 23:46 13,9 C 11,1 C 10,6 C 73 % 1020,0 hPa 0,0 l/m 0 min 0 min 0 W/m 0,0 km/h (0 Bft) 97,87 %
22.05.2019 23:48 13,8 C 11,7 C 10,6 C 73 % 1019,9 hPa 0,0 l/m 0 min 0 min 0 W/m 0,0 km/h (0 Bft) 93,62 %
22.05.2019 23:50 13,8 C 11,1 C 10,6 C 73 % 1020,0 hPa 0,0 l/m 0 min 0 min 0 W/m 0,0 km/h (0 Bft) 97,87 %
22.05.2019 23:52 13,8 C 11,1 C 10,6 C 73 % 1020,0 hPa 0,0 l/m 0 min 0 min 0 W/m 0,0 km/h (0 Bft) 97,87 %
22.05.2019 23:54 13,7 C 11,1 C 10,6 C 74 % 1020,0 hPa 0,0 l/m 0 min 0 min 0 W/m 0,0 km/h (0 Bft) 97,87 %
22.05.2019 23:56 13,7 C 11,1 C 10,0 C 74 % 1019,9 hPa 0,0 l/m 0 min 0 min 0 W/m 0,0 km/h (0 Bft) 97,83 %
22.05.2019 23:58 13,6 C 11,1 C 10,0 C 74 % 1020,0 hPa 0,0 l/m 0 min 0 min 0 W/m 0,0 km/h (0 Bft) 97,87 %
_ Min-Zeit 05:52 04:00 05:05 17:02 00:00 - - - - 01:24 05:22
Minimum _ 9,6 C 9,4 C 8,9 C 53 % 1017,5 hPa - - - - 0,0 km/h (0 Bft) 89,80 %
_ Max-Zeit 14:46 12:08 14:12 00:28 10:46 00:00 12:08 00:00 13:34 02:20 01:06
Maximum _ 21,6 C 27,8 C 30,0 C 99 % 1020,4 hPa 0,0 l/m 4 min 0 min 1131 W/m 32,2 km/h
O-NO (5 Bft)
100,00 %
Durchschnitt _ 14,9 C 15,8 C 15,0 C 79 % 1019,2 hPa #0,0 l/m #6:18 h #0 min. 394 W/m 6,8 km/h (2 Bft) 97,53 %
© 2019 W. Hausmann